Wetterdaten: Sonntag, 04.10.2020
Datum Zeit Temp. Aussen Temp. o. S. Temp +5cm Feuchte Auss Luftdruck Regen Sonnenschein Regendauer Solar Windben Empfang
04.10.2020 00:00 10,9 C 10,0 C 9,4 C 95 % 988,7 hPa 0,0 l/m 0 min 2 min 0 W/m 29,0 km/h (5 Bft) 97,87 %
04.10.2020 00:02 10,9 C 9,4 C 9,4 C 95 % 988,6 hPa 0,0 l/m 0 min 2 min 0 W/m 19,3 km/h (3 Bft) 95,45 %
04.10.2020 00:04 10,9 C 9,4 C 9,4 C 95 % 988,5 hPa 0,0 l/m 0 min 2 min 0 W/m 25,7 km/h (4 Bft) 95,74 %
04.10.2020 00:07 11,0 C 9,4 C 9,4 C 95 % 988,5 hPa 0,0 l/m 0 min 3 min 0 W/m 16,1 km/h (3 Bft) 98,57 %
04.10.2020 00:08 11,0 C 9,4 C 9,4 C 95 % 988,5 hPa 0,0 l/m 0 min 1 min 0 W/m 16,1 km/h (3 Bft) 95,65 %
04.10.2020 00:10 11,0 C 9,4 C 9,4 C 95 % 988,6 hPa 0,0 l/m 0 min 2 min 0 W/m 22,5 km/h (4 Bft) 97,87 %
04.10.2020 00:12 11,0 C 9,4 C 9,4 C 95 % 988,5 hPa 0,0 l/m 0 min 2 min 0 W/m 16,1 km/h (3 Bft) 97,87 %
04.10.2020 00:14 11,0 C 9,4 C 9,4 C 95 % 988,5 hPa 0,0 l/m 0 min 2 min 0 W/m 12,9 km/h (3 Bft) 97,87 %
04.10.2020 00:16 11,0 C 9,4 C 9,4 C 95 % 988,5 hPa 0,0 l/m 0 min 0 min 0 W/m 29,0 km/h (5 Bft) 95,74 %
04.10.2020 00:18 11,0 C 9,4 C 9,4 C 95 % 988,5 hPa 0,2 l/m 0 min 0 min 0 W/m 29,0 km/h (5 Bft) 100,00 %
04.10.2020 00:20 11,0 C 9,4 C 9,4 C 95 % 988,4 hPa 0,0 l/m 0 min 0 min 0 W/m 12,9 km/h (3 Bft) 100,00 %
04.10.2020 00:22 11,0 C 9,4 C 9,4 C 95 % 988,4 hPa 0,0 l/m 0 min 0 min 0 W/m 19,3 km/h (3 Bft) 100,00 %
04.10.2020 00:24 11,0 C 9,4 C 9,4 C 95 % 988,4 hPa 0,0 l/m 0 min 0 min 0 W/m 29,0 km/h (5 Bft) 97,87 %
04.10.2020 00:26 11,0 C 10,0 C 9,4 C 95 % 988,5 hPa 0,0 l/m 0 min 0 min 0 W/m 22,5 km/h (4 Bft) 100,00 %
04.10.2020 00:28 11,1 C 10,0 C 9,4 C 95 % 988,5 hPa 0,0 l/m 0 min 0 min 0 W/m 19,3 km/h (3 Bft) 100,00 %
04.10.2020 00:30 11,1 C 10,0 C 9,4 C 95 % 988,5 hPa 0,0 l/m 0 min 0 min 0 W/m 25,7 km/h (4 Bft) 95,65 %
04.10.2020 00:32 11,1 C 10,0 C 9,4 C 95 % 988,5 hPa 0,0 l/m 0 min 0 min 0 W/m 16,1 km/h (3 Bft) 100,00 %
04.10.2020 00:34 11,1 C 10,0 C 9,4 C 95 % 988,5 hPa 0,0 l/m 0 min 0 min 0 W/m 19,3 km/h (3 Bft) 97,87 %
04.10.2020 00:36 11,1 C 10,0 C 9,4 C 95 % 988,5 hPa 0,0 l/m 0 min 0 min 0 W/m 16,1 km/h (3 Bft) 95,74 %
04.10.2020 00:38 11,1 C 10,0 C 9,4 C 95 % 988,5 hPa 0,0 l/m 0 min 0 min 0 W/m 22,5 km/h (4 Bft) 100,00 %
04.10.2020 00:40 11,1 C 10,0 C 9,4 C 95 % 988,4 hPa 0,0 l/m 0 min 0 min 0 W/m 16,1 km/h (3 Bft) 97,87 %
04.10.2020 00:42 11,1 C 10,0 C 9,4 C 95 % 988,4 hPa 0,0 l/m 0 min 0 min 0 W/m 19,3 km/h (3 Bft) 100,00 %
04.10.2020 00:44 11,1 C 10,0 C 9,4 C 95 % 988,3 hPa 0,0 l/m 0 min 0 min 0 W/m 19,3 km/h (3 Bft) 97,87 %
04.10.2020 00:46 11,1 C 10,0 C 9,4 C 95 % 988,3 hPa 0,0 l/m 0 min 0 min 0 W/m 19,3 km/h (3 Bft) 93,62 %
04.10.2020 00:48 11,1 C 10,0 C 9,4 C 95 % 988,2 hPa 0,0 l/m 0 min 0 min 0 W/m 16,1 km/h (3 Bft) 48,65 %
04.10.2020 00:50 11,1 C 10,0 C 8,9 C 95 % 988,3 hPa 0,0 l/m 0 min 0 min 0 W/m 16,1 km/h (3 Bft) 97,87 %
04.10.2020 00:52 11,1 C 10,0 C 8,9 C 95 % 988,2 hPa 0,0 l/m 0 min 0 min 0 W/m 16,1 km/h (3 Bft) 95,74 %
04.10.2020 00:54 11,1 C 10,0 C 8,9 C 95 % 988,2 hPa 0,0 l/m 0 min 0 min 0 W/m 12,9 km/h (3 Bft) 97,83 %
04.10.2020 00:56 11,0 C 10,0 C 8,9 C 95 % 988,2 hPa 0,0 l/m 0 min 0 min 0 W/m 19,3 km/h (3 Bft) 97,87 %
04.10.2020 00:58 11,0 C 10,0 C 8,9 C 95 % 988,2 hPa 0,0 l/m 0 min 0 min 0 W/m 16,1 km/h (3 Bft) 97,87 %
04.10.2020 01:00 11,0 C 10,0 C 8,9 C 95 % 988,2 hPa 0,0 l/m 0 min 0 min 0 W/m 12,9 km/h (3 Bft) 97,87 %
04.10.2020 01:02 10,9 C 10,0 C 8,9 C 95 % 988,2 hPa 0,0 l/m 0 min 0 min 0 W/m 12,9 km/h (3 Bft) 97,87 %
04.10.2020 01:04 10,9 C 10,0 C 8,9 C 95 % 988,1 hPa 0,0 l/m 0 min 0 min 0 W/m 22,5 km/h (4 Bft) 97,83 %
04.10.2020 01:06 10,9 C 10,0 C 8,9 C 95 % 988,1 hPa 0,0 l/m 0 min 0 min 0 W/m 16,1 km/h (3 Bft) 95,74 %
04.10.2020 01:08 10,9 C 10,0 C 8,9 C 95 % 988,1 hPa 0,0 l/m 0 min 0 min 0 W/m 19,3 km/h (3 Bft) 97,87 %
04.10.2020 01:10 10,9 C 10,0 C 8,9 C 95 % 988,1 hPa 0,0 l/m 0 min 0 min 0 W/m 19,3 km/h (3 Bft) 97,87 %
04.10.2020 01:12 10,9 C 10,0 C 8,9 C 95 % 988,0 hPa 0,0 l/m 0 min 0 min 0 W/m 16,1 km/h (3 Bft) 97,87 %
04.10.2020 01:14 10,9 C 10,0 C 8,9 C 95 % 987,9 hPa 0,0 l/m 0 min 0 min 0 W/m 6,4 km/h (2 Bft) 97,87 %
04.10.2020 01:16 10,9 C 10,0 C 8,9 C 95 % 987,8 hPa 0,0 l/m 0 min 0 min 0 W/m 6,4 km/h (2 Bft) 97,83 %
04.10.2020 01:18 10,9 C 10,0 C 8,9 C 95 % 987,7 hPa 0,0 l/m 0 min 0 min 0 W/m 6,4 km/h (2 Bft) 97,87 %
04.10.2020 01:20 10,9 C 10,0 C 8,9 C 94 % 987,8 hPa 0,0 l/m 0 min 0 min 0 W/m 12,9 km/h (3 Bft) 100,00 %
04.10.2020 01:22 10,8 C 10,0 C 8,9 C 94 % 987,9 hPa 0,0 l/m 0 min 0 min 0 W/m 6,4 km/h (2 Bft) 97,87 %
04.10.2020 01:24 10,8 C 10,0 C 8,9 C 94 % 987,9 hPa 0,0 l/m 0 min 0 min 0 W/m 3,2 km/h (1 Bft) 100,00 %
04.10.2020 01:26 10,8 C 9,4 C 8,9 C 94 % 988,0 hPa 0,0 l/m 0 min 0 min 0 W/m 12,9 km/h (3 Bft) 97,87 %
04.10.2020 01:28 10,8 C 9,4 C 8,9 C 94 % 988,0 hPa 0,0 l/m 0 min 0 min 0 W/m 12,9 km/h (3 Bft) 100,00 %
04.10.2020 01:30 10,8 C 10,0 C 8,9 C 94 % 988,1 hPa 0,0 l/m 0 min 0 min 0 W/m 19,3 km/h (3 Bft) 100,00 %
04.10.2020 01:32 10,8 C 10,0 C 8,9 C 94 % 988,1 hPa 0,0 l/m 0 min 0 min 0 W/m 6,4 km/h (2 Bft) 100,00 %
04.10.2020 01:34 10,8 C 9,4 C 8,9 C 94 % 988,0 hPa 0,0 l/m 0 min 0 min 0 W/m 6,4 km/h (2 Bft) 100,00 %
04.10.2020 01:36 10,8 C 9,4 C 8,9 C 94 % 988,0 hPa 0,0 l/m 0 min 0 min 0 W/m 6,4 km/h (2 Bft) 97,87 %
04.10.2020 01:38 10,8 C 10,0 C 8,9 C 94 % 988,0 hPa 0,0 l/m 0 min 0 min 0 W/m 16,1 km/h (3 Bft) 100,00 %
04.10.2020 01:40 10,7 C 10,0 C 8,9 C 94 % 988,0 hPa 0,0 l/m 0 min 0 min 0 W/m 22,5 km/h (4 Bft) 100,00 %
04.10.2020 01:42 10,7 C 10,0 C 8,9 C 94 % 988,1 hPa 0,0 l/m 0 min 0 min 0 W/m 6,4 km/h (2 Bft) 97,87 %
04.10.2020 01:44 10,7 C 10,0 C 8,9 C 95 % 988,0 hPa 0,0 l/m 0 min 0 min 0 W/m 6,4 km/h (2 Bft) 100,00 %
04.10.2020 01:46 10,7 C 10,0 C 8,9 C 95 % 988,0 hPa 0,0 l/m 0 min 0 min 0 W/m 16,1 km/h (3 Bft) 100,00 %
04.10.2020 01:48 10,7 C 10,0 C 8,9 C 95 % 988,0 hPa 0,0 l/m 0 min 0 min 0 W/m 12,9 km/h (3 Bft) 100,00 %
04.10.2020 01:50 10,7 C 10,0 C 8,9 C 95 % 987,9 hPa 0,0 l/m 0 min 0 min 0 W/m 12,9 km/h (3 Bft) 100,00 %
04.10.2020 01:52 10,8 C 10,0 C 8,9 C 95 % 987,9 hPa 0,0 l/m 0 min 0 min 0 W/m 12,9 km/h (3 Bft) 100,00 %
04.10.2020 01:54 10,8 C 10,0 C 8,9 C 95 % 987,9 hPa 0,0 l/m 0 min 0 min 0 W/m 12,9 km/h (3 Bft) 100,00 %
04.10.2020 01:56 10,8 C 10,6 C 8,9 C 95 % 987,9 hPa 0,0 l/m 0 min 0 min 0 W/m 19,3 km/h (3 Bft) 97,87 %
04.10.2020 01:58 10,8 C 10,6 C 9,4 C 95 % 987,8 hPa 0,0 l/m 0 min 0 min 0 W/m 22,5 km/h (4 Bft) 100,00 %
04.10.2020 02:00 10,8 C 10,6 C 9,4 C 95 % 987,8 hPa 0,0 l/m 0 min 0 min 0 W/m 29,0 km/h (5 Bft) 100,00 %
04.10.2020 02:02 10,8 C 10,6 C 9,4 C 95 % 987,8 hPa 0,0 l/m 0 min 0 min 0 W/m 12,9 km/h (3 Bft) 100,00 %
04.10.2020 02:04 10,8 C 10,6 C 9,4 C 95 % 987,9 hPa 0,0 l/m 0 min 0 min 0 W/m 22,5 km/h (4 Bft) 100,00 %
04.10.2020 02:06 10,8 C 10,6 C 9,4 C 95 % 987,8 hPa 0,0 l/m 0 min 0 min 0 W/m 25,7 km/h (4 Bft) 100,00 %
04.10.2020 02:08 10,9 C 10,6 C 9,4 C 95 % 987,8 hPa 0,0 l/m 0 min 0 min 0 W/m 16,1 km/h (3 Bft) 100,00 %
04.10.2020 02:10 10,9 C 10,6 C 9,4 C 95 % 987,8 hPa 0,0 l/m 0 min 0 min 0 W/m 16,1 km/h (3 Bft) 100,00 %
04.10.2020 02:12 10,9 C 10,6 C 9,4 C 95 % 987,7 hPa 0,0 l/m 0 min 0 min 0 W/m 22,5 km/h (4 Bft) 97,87 %
04.10.2020 02:14 10,9 C 10,6 C 9,4 C 95 % 987,7 hPa 0,0 l/m 0 min 0 min 0 W/m 19,3 km/h (3 Bft) 97,83 %
04.10.2020 02:16 10,9 C 10,6 C 9,4 C 95 % 987,7 hPa 0,0 l/m 0 min 0 min 0 W/m 25,7 km/h (4 Bft) 100,00 %
04.10.2020 02:18 11,0 C 10,6 C 9,4 C 95 % 987,6 hPa 0,0 l/m 0 min 0 min 0 W/m 16,1 km/h (3 Bft) 97,87 %
04.10.2020 02:20 11,0 C 10,6 C 9,4 C 95 % 987,5 hPa 0,0 l/m 0 min 0 min 0 W/m 29,0 km/h (5 Bft) 95,74 %
04.10.2020 02:22 11,1 C 10,6 C 9,4 C 95 % 987,5 hPa 0,0 l/m 0 min 0 min 0 W/m 35,4 km/h (5 Bft) 91,49 %
04.10.2020 02:24 11,1 C 11,1 C 9,4 C 94 % 987,4 hPa 0,0 l/m 0 min 0 min 0 W/m 29,0 km/h (5 Bft) 95,74 %
04.10.2020 02:26 11,1 C 10,6 C 9,4 C 94 % 987,4 hPa 0,0 l/m 0 min 0 min 0 W/m 29,0 km/h (5 Bft) 93,48 %
04.10.2020 02:28 11,1 C 10,6 C 9,4 C 94 % 987,4 hPa 0,0 l/m 0 min 0 min 0 W/m 29,0 km/h (5 Bft) 95,74 %
04.10.2020 02:30 11,1 C 11,1 C 9,4 C 94 % 987,4 hPa 0,0 l/m 0 min 0 min 0 W/m 19,3 km/h (3 Bft) 95,74 %
04.10.2020 02:32 11,2 C 11,1 C 9,4 C 94 % 987,4 hPa 0,0 l/m 0 min 0 min 0 W/m 25,7 km/h (4 Bft) 95,74 %
04.10.2020 02:34 11,2 C 10,6 C 9,4 C 93 % 987,4 hPa 0,0 l/m 0 min 0 min 0 W/m 19,3 km/h (3 Bft) 93,62 %
04.10.2020 02:36 11,2 C 10,6 C 9,4 C 93 % 987,4 hPa 0,0 l/m 0 min 0 min 0 W/m 25,7 km/h (4 Bft) 95,74 %
04.10.2020 02:38 11,2 C 10,6 C 9,4 C 93 % 987,3 hPa 0,0 l/m 0 min 0 min 0 W/m 19,3 km/h (3 Bft) 95,65 %
04.10.2020 02:40 11,2 C 11,1 C 9,4 C 93 % 987,3 hPa 0,0 l/m 0 min 0 min 0 W/m 19,3 km/h (3 Bft) 93,62 %
04.10.2020 02:42 11,3 C 11,1 C 9,4 C 93 % 987,4 hPa 0,0 l/m 0 min 0 min 0 W/m 16,1 km/h (3 Bft) 95,74 %
04.10.2020 02:44 11,3 C 10,6 C 9,4 C 93 % 987,3 hPa 0,0 l/m 0 min 0 min 0 W/m 22,5 km/h (4 Bft) 93,62 %
04.10.2020 02:46 11,3 C 11,1 C 9,4 C 93 % 987,2 hPa 0,0 l/m 0 min 0 min 0 W/m 25,7 km/h (4 Bft) 95,74 %
04.10.2020 02:48 11,3 C 10,6 C 9,4 C 92 % 987,2 hPa 0,0 l/m 0 min 0 min 0 W/m 16,1 km/h (3 Bft) 95,74 %
04.10.2020 02:50 11,3 C 11,1 C 9,4 C 92 % 987,2 hPa 0,0 l/m 0 min 0 min 0 W/m 25,7 km/h (4 Bft) 95,65 %
04.10.2020 02:52 11,3 C 10,6 C 9,4 C 92 % 987,2 hPa 0,0 l/m 0 min 0 min 0 W/m 22,5 km/h (4 Bft) 95,74 %
04.10.2020 02:54 11,4 C 10,6 C 9,4 C 92 % 987,2 hPa 0,0 l/m 0 min 0 min 0 W/m 12,9 km/h (3 Bft) 95,74 %
04.10.2020 02:56 11,4 C 10,6 C 9,4 C 92 % 987,2 hPa 0,0 l/m 0 min 0 min 0 W/m 19,3 km/h (3 Bft) 93,62 %
04.10.2020 02:58 11,4 C 10,6 C 9,4 C 92 % 987,2 hPa 0,0 l/m 0 min 0 min 0 W/m 22,5 km/h (4 Bft) 95,74 %
04.10.2020 03:00 11,4 C 10,6 C 9,4 C 92 % 987,1 hPa 0,0 l/m 0 min 0 min 0 W/m 19,3 km/h (3 Bft) 93,48 %
04.10.2020 03:02 11,4 C 10,6 C 9,4 C 92 % 987,2 hPa 0,0 l/m 0 min 0 min 0 W/m 25,7 km/h (4 Bft) 93,62 %
04.10.2020 03:04 11,4 C 10,6 C 9,4 C 92 % 987,1 hPa 0,0 l/m 0 min 0 min 0 W/m 12,9 km/h (3 Bft) 95,74 %
04.10.2020 03:06 11,4 C 10,6 C 9,4 C 91 % 987,1 hPa 0,0 l/m 0 min 0 min 0 W/m 16,1 km/h (3 Bft) 95,74 %
04.10.2020 03:08 11,4 C 10,6 C 9,4 C 91 % 987,0 hPa 0,0 l/m 0 min 0 min 0 W/m 19,3 km/h (3 Bft) 95,74 %
04.10.2020 03:10 11,4 C 10,6 C 9,4 C 91 % 987,0 hPa 0,0 l/m 0 min 0 min 0 W/m 12,9 km/h (3 Bft) 95,74 %
04.10.2020 03:12 11,4 C 10,6 C 9,4 C 91 % 987,0 hPa 0,0 l/m 0 min 0 min 0 W/m 25,7 km/h (4 Bft) 100,00 %
04.10.2020 03:14 11,4 C 10,6 C 9,4 C 91 % 987,0 hPa 0,0 l/m 0 min 0 min 0 W/m 16,1 km/h (3 Bft) 100,00 %
04.10.2020 03:16 11,4 C 10,6 C 9,4 C 91 % 987,0 hPa 0,0 l/m 0 min 0 min 0 W/m 25,7 km/h (4 Bft) 95,74 %
04.10.2020 03:18 11,4 C 10,6 C 9,4 C 91 % 987,0 hPa 0,0 l/m 0 min 2 min 0 W/m 22,5 km/h (4 Bft) 95,74 %
04.10.2020 03:20 11,4 C 10,6 C 9,4 C 91 % 986,9 hPa 0,0 l/m 0 min 2 min 0 W/m 16,1 km/h (3 Bft) 97,87 %
04.10.2020 03:22 11,4 C 10,0 C 9,4 C 91 % 986,9 hPa 0,0 l/m 0 min 2 min 0 W/m 25,7 km/h (4 Bft) 97,87 %
04.10.2020 03:24 11,4 C 10,0 C 9,4 C 91 % 986,9 hPa 0,0 l/m 0 min 0 min 0 W/m 19,3 km/h (3 Bft) 97,83 %
04.10.2020 03:26 11,4 C 10,6 C 9,4 C 91 % 986,9 hPa 0,0 l/m 0 min 2 min 0 W/m 22,5 km/h (4 Bft) 97,87 %
04.10.2020 03:28 11,4 C 10,6 C 9,4 C 91 % 986,8 hPa 0,0 l/m 0 min 2 min 0 W/m 19,3 km/h (3 Bft) 95,74 %
04.10.2020 03:30 11,4 C 10,6 C 9,4 C 90 % 986,8 hPa 0,0 l/m 0 min 0 min 0 W/m 22,5 km/h (4 Bft) 97,87 %
04.10.2020 03:32 11,4 C 10,6 C 9,4 C 90 % 986,8 hPa 0,0 l/m 0 min 0 min 0 W/m 19,3 km/h (3 Bft) 95,74 %
04.10.2020 03:34 11,4 C 11,1 C 9,4 C 90 % 986,7 hPa 0,0 l/m 0 min 0 min 0 W/m 25,7 km/h (4 Bft) 95,74 %
04.10.2020 03:36 11,4 C 11,1 C 9,4 C 90 % 986,8 hPa 0,0 l/m 0 min 0 min 0 W/m 22,5 km/h (4 Bft) 97,83 %
04.10.2020 03:38 11,5 C 11,1 C 9,4 C 90 % 986,8 hPa 0,0 l/m 0 min 0 min 0 W/m 25,7 km/h (4 Bft) 95,74 %
04.10.2020 03:40 11,5 C 11,1 C 9,4 C 90 % 986,8 hPa 0,0 l/m 0 min 0 min 0 W/m 25,7 km/h (4 Bft) 97,87 %
04.10.2020 03:42 11,5 C 11,1 C 9,4 C 89 % 986,7 hPa 0,0 l/m 0 min 0 min 0 W/m 22,5 km/h (4 Bft) 97,87 %
04.10.2020 03:44 11,5 C 11,1 C 9,4 C 89 % 986,6 hPa 0,0 l/m 0 min 0 min 0 W/m 25,7 km/h (4 Bft) 97,87 %
04.10.2020 03:46 11,5 C 11,1 C 9,4 C 89 % 986,6 hPa 0,0 l/m 0 min 0 min 0 W/m 35,4 km/h (5 Bft) 97,87 %
04.10.2020 03:48 11,6 C 11,1 C 9,4 C 89 % 986,6 hPa 0,0 l/m 0 min 2 min 0 W/m 19,3 km/h (3 Bft) 97,83 %
04.10.2020 03:50 11,6 C 10,6 C 9,4 C 89 % 986,6 hPa 0,0 l/m 0 min 0 min 0 W/m 22,5 km/h (4 Bft) 97,87 %
04.10.2020 03:52 11,6 C 10,6 C 9,4 C 89 % 986,6 hPa 0,0 l/m 0 min 2 min 0 W/m 22,5 km/h (4 Bft) 97,87 %
04.10.2020 03:54 11,6 C 10,6 C 9,4 C 89 % 986,5 hPa 0,0 l/m 0 min 2 min 0 W/m 16,1 km/h (3 Bft) 97,87 %
04.10.2020 03:56 11,6 C 10,6 C 9,4 C 89 % 986,5 hPa 0,0 l/m 0 min 0 min 0 W/m 29,0 km/h (5 Bft) 97,87 %
04.10.2020 03:58 11,6 C 10,0 C 9,4 C 89 % 986,5 hPa 0,0 l/m 0 min 2 min 0 W/m 29,0 km/h (5 Bft) 95,65 %
04.10.2020 04:00 11,6 C 10,6 C 9,4 C 89 % 986,5 hPa 0,0 l/m 0 min 0 min 0 W/m 35,4 km/h (5 Bft) 97,87 %
04.10.2020 04:02 11,6 C 10,6 C 9,4 C 89 % 986,4 hPa 0,0 l/m 0 min 0 min 0 W/m 19,3 km/h (3 Bft) 100,00 %
04.10.2020 04:04 11,6 C 10,6 C 9,4 C 89 % 986,4 hPa 0,0 l/m 0 min 0 min 0 W/m 25,7 km/h (4 Bft) 100,00 %
04.10.2020 04:06 11,6 C 10,6 C 9,4 C 89 % 986,4 hPa 0,0 l/m 0 min 0 min 0 W/m 29,0 km/h (5 Bft) 97,87 %
04.10.2020 04:08 11,6 C 10,6 C 9,4 C 89 % 986,3 hPa 0,0 l/m 0 min 0 min 0 W/m 32,2 km/h (5 Bft) 100,00 %
04.10.2020 04:10 11,6 C 10,6 C 9,4 C 89 % 986,3 hPa 0,0 l/m 0 min 0 min 0 W/m 29,0 km/h (5 Bft) 100,00 %
04.10.2020 04:12 11,6 C 10,6 C 9,4 C 89 % 986,4 hPa 0,0 l/m 0 min 0 min 0 W/m 19,3 km/h (3 Bft) 97,83 %
04.10.2020 04:14 11,6 C 10,6 C 9,4 C 89 % 986,3 hPa 0,0 l/m 0 min 0 min 0 W/m 35,4 km/h (5 Bft) 100,00 %
04.10.2020 04:16 11,6 C 11,1 C 10,0 C 88 % 986,3 hPa 0,0 l/m 0 min 0 min 0 W/m 25,7 km/h (4 Bft) 100,00 %
04.10.2020 04:18 11,6 C 10,6 C 10,0 C 88 % 986,3 hPa 0,0 l/m 0 min 0 min 0 W/m 25,7 km/h (4 Bft) 100,00 %
04.10.2020 04:20 11,6 C 10,6 C 10,0 C 88 % 986,3 hPa 0,0 l/m 0 min 0 min 0 W/m 29,0 km/h (5 Bft) 100,00 %
04.10.2020 04:22 11,6 C 10,6 C 10,0 C 88 % 986,3 hPa 0,0 l/m 0 min 0 min 0 W/m 22,5 km/h (4 Bft) 95,65 %
04.10.2020 04:24 11,6 C 10,6 C 10,0 C 88 % 986,2 hPa 0,0 l/m 0 min 0 min 0 W/m 22,5 km/h (4 Bft) 100,00 %
04.10.2020 04:26 11,6 C 10,6 C 9,4 C 89 % 986,2 hPa 0,0 l/m 0 min 2 min 0 W/m 19,3 km/h (3 Bft) 100,00 %
04.10.2020 04:28 11,6 C 10,6 C 9,4 C 89 % 986,2 hPa 0,0 l/m 0 min 0 min 0 W/m 25,7 km/h (4 Bft) 100,00 %
04.10.2020 04:30 11,6 C 10,6 C 9,4 C 89 % 986,2 hPa 0,0 l/m 0 min 0 min 0 W/m 22,5 km/h (4 Bft) 100,00 %
04.10.2020 04:32 11,6 C 10,6 C 9,4 C 89 % 986,2 hPa 0,0 l/m 0 min 0 min 0 W/m 22,5 km/h (4 Bft) 100,00 %
04.10.2020 04:34 11,6 C 10,6 C 10,0 C 89 % 986,1 hPa 0,0 l/m 0 min 0 min 0 W/m 22,5 km/h (4 Bft) 100,00 %
04.10.2020 04:36 11,6 C 10,6 C 10,0 C 89 % 986,2 hPa 0,0 l/m 0 min 0 min 0 W/m 16,1 km/h (3 Bft) 100,00 %
04.10.2020 04:38 11,6 C 10,6 C 10,0 C 89 % 986,1 hPa 0,0 l/m 0 min 0 min 0 W/m 25,7 km/h (4 Bft) 100,00 %
04.10.2020 04:40 11,6 C 11,1 C 10,0 C 89 % 986,1 hPa 0,0 l/m 0 min 0 min 0 W/m 38,6 km/h (5 Bft) 100,00 %
04.10.2020 04:42 11,6 C 11,1 C 10,0 C 89 % 986,1 hPa 0,0 l/m 0 min 0 min 0 W/m 25,7 km/h (4 Bft) 100,00 %
04.10.2020 04:44 11,6 C 11,1 C 10,0 C 89 % 986,1 hPa 0,0 l/m 0 min 0 min 0 W/m 32,2 km/h (5 Bft) 100,00 %
04.10.2020 04:46 11,6 C 11,1 C 10,0 C 89 % 986,0 hPa 0,0 l/m 0 min 0 min 0 W/m 19,3 km/h (3 Bft) 100,00 %
04.10.2020 04:48 11,6 C 11,1 C 10,0 C 89 % 986,1 hPa 0,0 l/m 0 min 0 min 0 W/m 35,4 km/h (5 Bft) 100,00 %
04.10.2020 04:50 11,6 C 11,1 C 10,0 C 89 % 986,0 hPa 0,0 l/m 0 min 0 min 0 W/m 22,5 km/h (4 Bft) 100,00 %
04.10.2020 04:52 11,6 C 11,1 C 10,0 C 89 % 986,2 hPa 0,0 l/m 0 min 0 min 0 W/m 25,7 km/h (4 Bft) 100,00 %
04.10.2020 04:54 11,6 C 11,1 C 10,0 C 89 % 986,1 hPa 0,0 l/m 0 min 0 min 0 W/m 22,5 km/h (4 Bft) 100,00 %
04.10.2020 04:56 11,6 C 11,1 C 10,0 C 89 % 986,2 hPa 0,0 l/m 0 min 0 min 0 W/m 25,7 km/h (4 Bft) 95,65 %
04.10.2020 04:58 11,6 C 11,1 C 10,0 C 89 % 986,1 hPa 0,0 l/m 0 min 0 min 0 W/m 22,5 km/h (4 Bft) 97,87 %
04.10.2020 05:00 11,6 C 11,1 C 10,0 C 89 % 986,1 hPa 0,0 l/m 0 min 0 min 0 W/m 19,3 km/h (3 Bft) 100,00 %
04.10.2020 05:02 11,6 C 11,1 C 10,0 C 89 % 986,1 hPa 0,0 l/m 0 min 0 min 0 W/m 16,1 km/h (3 Bft) 97,87 %
04.10.2020 05:04 11,6 C 11,1 C 10,0 C 89 % 986,1 hPa 0,0 l/m 0 min 0 min 0 W/m 16,1 km/h (3 Bft) 100,00 %
04.10.2020 05:06 11,6 C 11,1 C 10,0 C 89 % 986,0 hPa 0,0 l/m 0 min 0 min 0 W/m 16,1 km/h (3 Bft) 97,87 %
04.10.2020 05:08 11,6 C 10,6 C 10,0 C 89 % 986,1 hPa 0,0 l/m 0 min 0 min 0 W/m 22,5 km/h (4 Bft) 95,65 %
04.10.2020 05:10 11,6 C 11,1 C 10,0 C 89 % 986,0 hPa 0,0 l/m 0 min 0 min 0 W/m 25,7 km/h (4 Bft) 97,87 %
04.10.2020 05:12 11,6 C 10,6 C 10,0 C 89 % 986,1 hPa 0,0 l/m 0 min 0 min 0 W/m 19,3 km/h (3 Bft) 97,87 %
04.10.2020 05:14 11,6 C 10,6 C 10,0 C 89 % 986,1 hPa 0,0 l/m 0 min 0 min 0 W/m 38,6 km/h (5 Bft) 97,87 %
04.10.2020 05:16 11,7 C 10,6 C 10,0 C 89 % 986,1 hPa 0,0 l/m 0 min 0 min 0 W/m 12,9 km/h (3 Bft) 97,87 %
04.10.2020 05:18 11,6 C 10,0 C 10,0 C 89 % 986,1 hPa 0,0 l/m 0 min 2 min 0 W/m 22,5 km/h (4 Bft) 97,87 %
04.10.2020 05:20 11,7 C 10,0 C 10,0 C 89 % 986,1 hPa 0,0 l/m 0 min 2 min 0 W/m 35,4 km/h (5 Bft) 97,83 %
04.10.2020 05:22 11,6 C 10,0 C 10,0 C 89 % 986,1 hPa 0,0 l/m 0 min 2 min 0 W/m 25,7 km/h (4 Bft) 97,87 %
04.10.2020 05:24 11,6 C 10,0 C 10,0 C 90 % 986,1 hPa 0,0 l/m 0 min 2 min 0 W/m 22,5 km/h (4 Bft) 95,74 %
04.10.2020 05:26 11,6 C 10,0 C 10,0 C 90 % 986,0 hPa 0,0 l/m 0 min 2 min 0 W/m 29,0 km/h (5 Bft) 95,74 %
04.10.2020 05:28 11,6 C 10,0 C 10,0 C 90 % 986,1 hPa 0,0 l/m 0 min 2 min 0 W/m 22,5 km/h (4 Bft) 95,74 %
04.10.2020 05:30 11,6 C 10,0 C 9,4 C 90 % 986,1 hPa 0,0 l/m 0 min 2 min 0 W/m 22,5 km/h (4 Bft) 95,74 %
04.10.2020 05:32 11,6 C 10,0 C 9,4 C 90 % 986,1 hPa 0,0 l/m 0 min 2 min 0 W/m 16,1 km/h (3 Bft) 93,48 %
04.10.2020 05:34 11,6 C 10,0 C 10,0 C 90 % 986,2 hPa 0,0 l/m 0 min 2 min 0 W/m 22,5 km/h (4 Bft) 95,74 %
04.10.2020 05:36 11,5 C 10,0 C 9,4 C 91 % 986,3 hPa 0,0 l/m 0 min 0 min 0 W/m 19,3 km/h (3 Bft) 95,74 %
04.10.2020 05:38 11,5 C 10,0 C 9,4 C 91 % 986,2 hPa 0,0 l/m 0 min 0 min 0 W/m 19,3 km/h (3 Bft) 95,74 %
04.10.2020 05:40 11,5 C 10,0 C 9,4 C 91 % 986,3 hPa 0,0 l/m 0 min 0 min 0 W/m 19,3 km/h (3 Bft) 95,74 %
04.10.2020 05:42 11,5 C 10,0 C 9,4 C 91 % 986,3 hPa 0,0 l/m 0 min 2 min 0 W/m 19,3 km/h (3 Bft) 95,65 %
04.10.2020 05:44 11,4 C 10,0 C 9,4 C 91 % 986,4 hPa 0,0 l/m 0 min 2 min 0 W/m 22,5 km/h (4 Bft) 97,87 %
04.10.2020 05:46 11,4 C 10,0 C 9,4 C 91 % 986,4 hPa 0,0 l/m 0 min 2 min 0 W/m 22,5 km/h (4 Bft) 93,62 %
04.10.2020 05:48 11,4 C 9,4 C 9,4 C 91 % 986,5 hPa 0,0 l/m 0 min 2 min 0 W/m 22,5 km/h (4 Bft) 93,62 %
04.10.2020 05:50 11,4 C 9,4 C 9,4 C 91 % 986,6 hPa 0,0 l/m 0 min 2 min 0 W/m 22,5 km/h (4 Bft) 95,74 %
04.10.2020 05:52 11,4 C 9,4 C 9,4 C 92 % 986,6 hPa 0,0 l/m 0 min 2 min 0 W/m 25,7 km/h (4 Bft) 97,87 %
04.10.2020 05:54 11,4 C 9,4 C 9,4 C 92 % 986,6 hPa 0,0 l/m 0 min 2 min 0 W/m 22,5 km/h (4 Bft) 97,83 %
04.10.2020 05:56 11,3 C 9,4 C 9,4 C 92 % 986,5 hPa 0,0 l/m 0 min 2 min 0 W/m 29,0 km/h (5 Bft) 95,74 %
04.10.2020 05:58 11,3 C 9,4 C 9,4 C 92 % 986,5 hPa 0,0 l/m 0 min 2 min 0 W/m 19,3 km/h (3 Bft) 97,87 %
04.10.2020 06:00 11,3 C 9,4 C 9,4 C 92 % 986,7 hPa 0,0 l/m 0 min 2 min 0 W/m 35,4 km/h (5 Bft) 97,87 %
04.10.2020 06:02 11,2 C 9,4 C 9,4 C 92 % 986,6 hPa 0,0 l/m 0 min 2 min 0 W/m 25,7 km/h (4 Bft) 89,36 %
04.10.2020 06:04 11,2 C 9,4 C 9,4 C 93 % 986,7 hPa 0,0 l/m 0 min 2 min 0 W/m 29,0 km/h (5 Bft) 97,87 %
04.10.2020 06:08 11,1 C 9,4 C 9,4 C 93 % 986,7 hPa 0,0 l/m 0 min 4 min 0 W/m 25,7 km/h (4 Bft) 95,70 %
04.10.2020 06:10 11,1 C 9,4 C 9,4 C 93 % 986,8 hPa 0,0 l/m 0 min 2 min 0 W/m 22,5 km/h (4 Bft) 95,74 %
04.10.2020 06:12 11,1 C 9,4 C 9,4 C 93 % 986,7 hPa 0,2 l/m 0 min 2 min 0 W/m 29,0 km/h (5 Bft) 93,62 %
04.10.2020 06:14 11,1 C 9,4 C 9,4 C 93 % 986,8 hPa 0,0 l/m 0 min 2 min 0 W/m 16,1 km/h (3 Bft) 91,49 %
04.10.2020 06:16 11,0 C 9,4 C 9,4 C 93 % 986,8 hPa 0,0 l/m 0 min 2 min 0 W/m 22,5 km/h (4 Bft) 95,74 %
04.10.2020 06:18 11,0 C 9,4 C 9,4 C 94 % 986,8 hPa 0,0 l/m 0 min 2 min 0 W/m 19,3 km/h (3 Bft) 95,65 %
04.10.2020 06:20 11,0 C 9,4 C 9,4 C 94 % 986,9 hPa 0,0 l/m 0 min 2 min 0 W/m 25,7 km/h (4 Bft) 93,62 %
04.10.2020 06:22 10,9 C 9,4 C 9,4 C 94 % 986,8 hPa 0,0 l/m 0 min 0 min 0 W/m 16,1 km/h (3 Bft) 95,74 %
04.10.2020 06:24 10,9 C 9,4 C 9,4 C 94 % 986,9 hPa 0,0 l/m 0 min 0 min 0 W/m 12,9 km/h (3 Bft) 97,87 %
04.10.2020 06:26 10,9 C 9,4 C 9,4 C 94 % 986,9 hPa 0,0 l/m 0 min 0 min 0 W/m 19,3 km/h (3 Bft) 95,74 %
04.10.2020 06:28 10,9 C 9,4 C 9,4 C 94 % 986,9 hPa 0,0 l/m 0 min 2 min 0 W/m 19,3 km/h (3 Bft) 97,87 %
04.10.2020 06:30 10,9 C 9,4 C 9,4 C 94 % 987,0 hPa 0,0 l/m 0 min 2 min 0 W/m 22,5 km/h (4 Bft) 97,83 %
04.10.2020 06:32 10,9 C 9,4 C 9,4 C 94 % 987,0 hPa 0,0 l/m 0 min 2 min 0 W/m 12,9 km/h (3 Bft) 97,87 %
04.10.2020 06:34 10,8 C 9,4 C 9,4 C 95 % 987,0 hPa 0,0 l/m 0 min 2 min 0 W/m 16,1 km/h (3 Bft) 97,87 %
04.10.2020 06:36 10,8 C 9,4 C 9,4 C 95 % 987,0 hPa 0,0 l/m 0 min 2 min 0 W/m 16,1 km/h (3 Bft) 97,87 %
04.10.2020 06:38 10,8 C 9,4 C 9,4 C 95 % 987,0 hPa 0,0 l/m 0 min 2 min 0 W/m 19,3 km/h (3 Bft) 97,87 %
04.10.2020 06:40 10,8 C 9,4 C 9,4 C 95 % 987,0 hPa 0,0 l/m 0 min 0 min 0 W/m 16,1 km/h (3 Bft) 97,87 %
04.10.2020 06:42 10,8 C 9,4 C 9,4 C 95 % 987,0 hPa 0,0 l/m 0 min 2 min 0 W/m 16,1 km/h (3 Bft) 97,83 %
04.10.2020 06:44 10,8 C 9,4 C 9,4 C 95 % 987,1 hPa 0,0 l/m 0 min 0 min 0 W/m 12,9 km/h (3 Bft) 95,74 %
04.10.2020 06:46 10,8 C 9,4 C 9,4 C 95 % 987,1 hPa 0,0 l/m 0 min 0 min 0 W/m 16,1 km/h (3 Bft) 97,87 %
04.10.2020 06:48 10,7 C 9,4 C 9,4 C 95 % 987,2 hPa 0,0 l/m 0 min 0 min 0 W/m 16,1 km/h (3 Bft) 97,87 %
04.10.2020 06:50 10,7 C 9,4 C 9,4 C 95 % 987,1 hPa 0,0 l/m 0 min 0 min 0 W/m 19,3 km/h (3 Bft) 93,62 %
04.10.2020 06:52 10,7 C 9,4 C 9,4 C 95 % 987,2 hPa 0,0 l/m 0 min 0 min 0 W/m 16,1 km/h (3 Bft) 100,00 %
04.10.2020 06:54 10,7 C 9,4 C 9,4 C 95 % 987,2 hPa 0,0 l/m 0 min 0 min 0 W/m 16,1 km/h (3 Bft) 100,00 %
04.10.2020 06:56 10,7 C 9,4 C 9,4 C 95 % 987,2 hPa 0,0 l/m 0 min 0 min 0 W/m 12,9 km/h (3 Bft) 100,00 %
04.10.2020 06:58 10,7 C 9,4 C 9,4 C 95 % 987,4 hPa 0,0 l/m 0 min 0 min 0 W/m 6,4 km/h (2 Bft) 100,00 %
04.10.2020 07:00 10,7 C 9,4 C 9,4 C 95 % 987,3 hPa 0,0 l/m 0 min 0 min 0 W/m 16,1 km/h (3 Bft) 100,00 %
04.10.2020 07:02 10,7 C 9,4 C 9,4 C 95 % 987,4 hPa 0,0 l/m 0 min 0 min 0 W/m 16,1 km/h (3 Bft) 100,00 %
04.10.2020 07:04 10,7 C 9,4 C 9,4 C 96 % 987,4 hPa 0,0 l/m 0 min 0 min 0 W/m 16,1 km/h (3 Bft) 100,00 %
04.10.2020 07:06 10,7 C 9,4 C 9,4 C 96 % 987,4 hPa 0,0 l/m 0 min 0 min 0 W/m 16,1 km/h (3 Bft) 100,00 %
04.10.2020 07:08 10,7 C 9,4 C 9,4 C 96 % 987,5 hPa 0,0 l/m 0 min 0 min 0 W/m 3,2 km/h (1 Bft) 100,00 %
04.10.2020 07:10 10,7 C 9,4 C 9,4 C 96 % 987,5 hPa 0,0 l/m 0 min 0 min 0 W/m 12,9 km/h (3 Bft) 100,00 %
04.10.2020 07:12 10,7 C 9,4 C 9,4 C 96 % 987,5 hPa 0,0 l/m 0 min 0 min 0 W/m 16,1 km/h (3 Bft) 97,87 %
04.10.2020 07:14 10,7 C 9,4 C 9,4 C 96 % 987,6 hPa 0,0 l/m 0 min 0 min 0 W/m 19,3 km/h (3 Bft) 100,00 %
04.10.2020 07:16 10,6 C 9,4 C 9,4 C 96 % 987,6 hPa 0,0 l/m 0 min 0 min 0 W/m 6,4 km/h (2 Bft) 100,00 %
04.10.2020 07:18 10,7 C 9,4 C 9,4 C 96 % 987,7 hPa 0,0 l/m 0 min 0 min 0 W/m 19,3 km/h (3 Bft) 100,00 %
04.10.2020 07:20 10,6 C 9,4 C 9,4 C 96 % 987,8 hPa 0,0 l/m 0 min 0 min 0 W/m 6,4 km/h (2 Bft) 100,00 %
04.10.2020 07:22 10,6 C 9,4 C 9,4 C 96 % 987,9 hPa 0,0 l/m 0 min 0 min 0 W/m 12,9 km/h (3 Bft) 100,00 %
04.10.2020 07:24 10,7 C 9,4 C 9,4 C 96 % 987,8 hPa 0,2 l/m 0 min 0 min 0 W/m 19,3 km/h (3 Bft) 100,00 %
04.10.2020 07:26 10,7 C 9,4 C 9,4 C 96 % 987,9 hPa 0,0 l/m 0 min 0 min 0 W/m 22,5 km/h (4 Bft) 100,00 %
04.10.2020 07:28 10,7 C 9,4 C 9,4 C 96 % 987,8 hPa 0,0 l/m 0 min 0 min 0 W/m 19,3 km/h (3 Bft) 100,00 %
04.10.2020 07:30 10,7 C 9,4 C 9,4 C 96 % 987,9 hPa 0,0 l/m 0 min 0 min 0 W/m 12,9 km/h (3 Bft) 100,00 %
04.10.2020 07:32 10,7 C 9,4 C 9,4 C 96 % 987,9 hPa 0,0 l/m 0 min 0 min 0 W/m 16,1 km/h (3 Bft) 95,74 %
04.10.2020 07:34 10,7 C 9,4 C 9,4 C 96 % 987,9 hPa 0,0 l/m 0 min 0 min 0 W/m 12,9 km/h (3 Bft) 97,87 %
04.10.2020 07:36 10,7 C 9,4 C 9,4 C 97 % 988,0 hPa 0,0 l/m 0 min 0 min 0 W/m 12,9 km/h (3 Bft) 100,00 %
04.10.2020 07:38 10,7 C 9,4 C 9,4 C 97 % 988,0 hPa 0,0 l/m 0 min 0 min 0 W/m 12,9 km/h (3 Bft) 97,87 %
04.10.2020 07:40 10,7 C 9,4 C 9,4 C 97 % 988,0 hPa 0,0 l/m 0 min 0 min 0 W/m 12,9 km/h (3 Bft) 100,00 %
04.10.2020 07:42 10,7 C 9,4 C 9,4 C 97 % 988,0 hPa 0,0 l/m 0 min 0 min 0 W/m 12,9 km/h (3 Bft) 100,00 %
04.10.2020 07:44 10,7 C 9,4 C 9,4 C 97 % 988,1 hPa 0,0 l/m 0 min 0 min 0 W/m 12,9 km/h (3 Bft) 100,00 %
04.10.2020 07:46 10,7 C 9,4 C 9,4 C 97 % 988,2 hPa 0,0 l/m 0 min 0 min 0 W/m 6,4 km/h (2 Bft) 100,00 %
04.10.2020 07:48 10,7 C 9,4 C 9,4 C 97 % 988,1 hPa 0,0 l/m 0 min 0 min 0 W/m 12,9 km/h (3 Bft) 97,87 %
04.10.2020 07:50 10,7 C 9,4 C 9,4 C 97 % 988,1 hPa 0,0 l/m 0 min 0 min 0 W/m 12,9 km/h (3 Bft) 100,00 %
04.10.2020 07:52 10,7 C 9,4 C 9,4 C 97 % 988,2 hPa 0,0 l/m 0 min 0 min 0 W/m 12,9 km/h (3 Bft) 100,00 %
04.10.2020 07:54 10,6 C 9,4 C 9,4 C 97 % 988,2 hPa 0,0 l/m 0 min 0 min 4 W/m 6,4 km/h (2 Bft) 97,87 %
04.10.2020 07:56 10,7 C 9,4 C 9,4 C 97 % 988,2 hPa 0,0 l/m 0 min 0 min 5 W/m 6,4 km/h (2 Bft) 95,74 %
04.10.2020 07:58 10,7 C 9,4 C 9,4 C 97 % 988,3 hPa 0,0 l/m 0 min 0 min 6 W/m 16,1 km/h (3 Bft) 97,87 %
04.10.2020 08:00 10,6 C 9,4 C 9,4 C 97 % 988,4 hPa 0,0 l/m 0 min 0 min 7 W/m 6,4 km/h (2 Bft) 97,87 %
04.10.2020 08:02 10,6 C 9,4 C 9,4 C 97 % 988,4 hPa 0,0 l/m 0 min 0 min 7 W/m 12,9 km/h (3 Bft) 97,87 %
04.10.2020 08:04 10,6 C 9,4 C 9,4 C 97 % 988,5 hPa 0,0 l/m 0 min 0 min 7 W/m 12,9 km/h (3 Bft) 97,87 %
04.10.2020 08:06 10,7 C 9,4 C 9,4 C 97 % 988,5 hPa 0,0 l/m 0 min 0 min 7 W/m 9,7 km/h (2 Bft) 97,87 %
04.10.2020 08:08 10,7 C 9,4 C 9,4 C 97 % 988,5 hPa 0,0 l/m 0 min 0 min 5 W/m 22,5 km/h (4 Bft) 95,74 %
04.10.2020 08:10 10,7 C 9,4 C 9,4 C 97 % 988,6 hPa 0,0 l/m 0 min 0 min 5 W/m 19,3 km/h (3 Bft) 93,62 %
04.10.2020 08:12 10,7 C 9,4 C 9,4 C 97 % 988,7 hPa 0,0 l/m 0 min 0 min 7 W/m 12,9 km/h (3 Bft) 97,87 %
04.10.2020 08:14 10,7 C 9,4 C 9,4 C 97 % 988,7 hPa 0,0 l/m 0 min 0 min 7 W/m 12,9 km/h (3 Bft) 97,83 %
04.10.2020 08:16 10,7 C 9,4 C 9,4 C 97 % 988,7 hPa 0,0 l/m 0 min 0 min 8 W/m 6,4 km/h (2 Bft) 97,87 %
04.10.2020 08:18 10,7 C 9,4 C 9,4 C 97 % 988,7 hPa 0,0 l/m 0 min 0 min 11 W/m 12,9 km/h (3 Bft) 97,87 %
04.10.2020 08:20 10,7 C 9,4 C 9,4 C 97 % 988,7 hPa 0,0 l/m 0 min 0 min 11 W/m 12,9 km/h (3 Bft) 95,74 %
04.10.2020 08:22 10,7 C 9,4 C 9,4 C 97 % 988,7 hPa 0,0 l/m 0 min 0 min 11 W/m 6,4 km/h (2 Bft) 97,87 %
04.10.2020 08:24 10,7 C 10,0 C 9,4 C 97 % 988,7 hPa 0,0 l/m 0 min 0 min 14 W/m 6,4 km/h (2 Bft) 97,87 %
04.10.2020 08:26 10,7 C 10,0 C 9,4 C 97 % 988,7 hPa 0,0 l/m 0 min 0 min 18 W/m 3,2 km/h (1 Bft) 93,48 %
04.10.2020 08:28 10,7 C 10,0 C 9,4 C 97 % 988,7 hPa 0,0 l/m 0 min 0 min 19 W/m 16,1 km/h (3 Bft) 97,87 %
04.10.2020 08:30 10,7 C 10,0 C 9,4 C 97 % 988,7 hPa 0,0 l/m 0 min 0 min 21 W/m 19,3 km/h (3 Bft) 97,87 %
04.10.2020 08:32 10,7 C 10,0 C 9,4 C 97 % 988,8 hPa 0,0 l/m 0 min 0 min 18 W/m 12,9 km/h (3 Bft) 95,74 %
04.10.2020 08:34 10,7 C 10,0 C 9,4 C 97 % 988,8 hPa 0,0 l/m 0 min 0 min 17 W/m 6,4 km/h (2 Bft) 93,62 %
04.10.2020 08:36 10,7 C 10,0 C 9,4 C 97 % 988,8 hPa 0,0 l/m 0 min 0 min 20 W/m 6,4 km/h (2 Bft) 97,87 %
04.10.2020 08:38 10,7 C 10,0 C 9,4 C 97 % 988,8 hPa 0,0 l/m 0 min 0 min 22 W/m 22,5 km/h (4 Bft) 97,83 %
04.10.2020 08:40 10,7 C 10,0 C 9,4 C 97 % 988,9 hPa 0,0 l/m 0 min 0 min 24 W/m 12,9 km/h (3 Bft) 94,59 %
04.10.2020 08:42 10,7 C 10,0 C 9,4 C 97 % 988,9 hPa 0,0 l/m 0 min 0 min 19 W/m 19,3 km/h (3 Bft) 95,74 %
04.10.2020 08:44 10,7 C 10,0 C 10,0 C 97 % 988,9 hPa 0,0 l/m 0 min 0 min 20 W/m 22,5 km/h (4 Bft) 93,62 %
04.10.2020 08:46 10,7 C 10,0 C 10,0 C 97 % 988,8 hPa 0,0 l/m 0 min 0 min 24 W/m 16,1 km/h (3 Bft) 97,87 %
04.10.2020 08:48 10,7 C 10,0 C 10,0 C 97 % 988,9 hPa 0,0 l/m 0 min 0 min 29 W/m 12,9 km/h (3 Bft) 95,74 %
04.10.2020 08:50 10,8 C 10,0 C 10,0 C 97 % 988,9 hPa 0,0 l/m 0 min 0 min 26 W/m 16,1 km/h (3 Bft) 97,87 %
04.10.2020 08:52 10,8 C 10,0 C 10,0 C 97 % 988,9 hPa 0,0 l/m 0 min 0 min 25 W/m 19,3 km/h (3 Bft) 95,65 %
04.10.2020 08:54 10,8 C 10,0 C 10,0 C 97 % 989,0 hPa 0,0 l/m 0 min 0 min 27 W/m 22,5 km/h (4 Bft) 97,87 %
04.10.2020 08:56 10,8 C 10,6 C 10,0 C 97 % 989,1 hPa 0,0 l/m 0 min 0 min 32 W/m 16,1 km/h (3 Bft) 97,87 %
04.10.2020 08:58 10,8 C 10,6 C 10,0 C 97 % 989,1 hPa 0,0 l/m 0 min 0 min 33 W/m 22,5 km/h (4 Bft) 95,74 %
04.10.2020 09:00 10,8 C 10,6 C 10,0 C 97 % 989,2 hPa 0,0 l/m 0 min 0 min 33 W/m 22,5 km/h (4 Bft) 97,87 %
04.10.2020 09:02 10,8 C 10,6 C 10,0 C 97 % 989,2 hPa 0,0 l/m 0 min 0 min 36 W/m 19,3 km/h (3 Bft) 97,87 %
04.10.2020 09:04 10,8 C 10,6 C 10,0 C 96 % 989,2 hPa 0,0 l/m 0 min 0 min 37 W/m 16,1 km/h (3 Bft) 95,65 %
04.10.2020 09:06 10,8 C 10,6 C 10,0 C 96 % 989,3 hPa 0,0 l/m 0 min 0 min 40 W/m 12,9 km/h (3 Bft) 97,87 %
04.10.2020 09:08 10,9 C 10,6 C 10,0 C 96 % 989,3 hPa 0,0 l/m 0 min 0 min 41 W/m 22,5 km/h (4 Bft) 97,87 %
04.10.2020 09:10 10,9 C 10,6 C 10,0 C 96 % 989,4 hPa 0,0 l/m 0 min 0 min 41 W/m 35,4 km/h (5 Bft) 97,83 %
04.10.2020 09:12 10,9 C 10,6 C 10,0 C 96 % 989,4 hPa 0,0 l/m 0 min 0 min 42 W/m 29,0 km/h (5 Bft) 96,55 %
04.10.2020 09:14 10,9 C 10,6 C 10,0 C 96 % 989,5 hPa 0,0 l/m 0 min 0 min 39 W/m 19,3 km/h (3 Bft) 94,44 %
04.10.2020 09:16 11,0 C 10,0 C 10,0 C 96 % 989,5 hPa 0,0 l/m 0 min 0 min 32 W/m 19,3 km/h (3 Bft) 96,55 %
04.10.2020 09:18 11,0 C 10,0 C 10,0 C 95 % 989,5 hPa 0,0 l/m 0 min 2 min 33 W/m 19,3 km/h (3 Bft) 94,29 %
04.10.2020 09:20 11,1 C 10,0 C 10,0 C 95 % 989,6 hPa 0,0 l/m 0 min 2 min 35 W/m 22,5 km/h (4 Bft) 94,92 %
04.10.2020 09:22 11,1 C 10,0 C 10,0 C 95 % 989,6 hPa 0,0 l/m 0 min 2 min 39 W/m 35,4 km/h (5 Bft) 91,43 %
04.10.2020 09:24 11,1 C 10,0 C 10,0 C 95 % 989,6 hPa 0,0 l/m 0 min 2 min 41 W/m 29,0 km/h (5 Bft) 95,74 %
04.10.2020 09:26 11,1 C 10,0 C 10,0 C 95 % 989,6 hPa 0,0 l/m 0 min 2 min 39 W/m 25,7 km/h (4 Bft) 95,74 %
04.10.2020 09:28 11,2 C 10,0 C 10,0 C 94 % 989,6 hPa 0,0 l/m 0 min 2 min 43 W/m 29,0 km/h (5 Bft) 94,83 %
04.10.2020 09:30 11,2 C 10,0 C 10,0 C 94 % 989,8 hPa 0,0 l/m 0 min 2 min 48 W/m 29,0 km/h (5 Bft) 97,87 %
04.10.2020 09:32 11,2 C 10,0 C 10,0 C 94 % 989,8 hPa 0,0 l/m 0 min 2 min 53 W/m 25,7 km/h (4 Bft) 95,74 %
04.10.2020 09:34 11,2 C 10,0 C 10,0 C 94 % 989,8 hPa 0,0 l/m 0 min 2 min 63 W/m 35,4 km/h (5 Bft) 97,87 %
04.10.2020 09:36 11,2 C 10,0 C 10,0 C 94 % 990,0 hPa 0,0 l/m 0 min 2 min 69 W/m 22,5 km/h (4 Bft) 100,00 %
04.10.2020 09:38 11,3 C 10,0 C 10,0 C 94 % 990,0 hPa 0,0 l/m 0 min 2 min 71 W/m 25,7 km/h (4 Bft) 96,55 %
04.10.2020 09:40 11,3 C 10,0 C 10,0 C 93 % 990,0 hPa 0,0 l/m 0 min 2 min 73 W/m 19,3 km/h (3 Bft) 95,74 %
04.10.2020 09:42 11,3 C 10,0 C 10,0 C 93 % 990,1 hPa 0,0 l/m 0 min 2 min 77 W/m 22,5 km/h (4 Bft) 95,74 %
04.10.2020 09:44 11,3 C 10,0 C 10,0 C 93 % 990,1 hPa 0,0 l/m 0 min 2 min 81 W/m 19,3 km/h (3 Bft) 97,87 %
04.10.2020 09:46 11,3 C 10,0 C 10,0 C 93 % 990,1 hPa 0,0 l/m 0 min 0 min 82 W/m 16,1 km/h (3 Bft) 100,00 %
04.10.2020 09:48 11,3 C 10,6 C 10,0 C 93 % 990,2 hPa 0,0 l/m 0 min 0 min 93 W/m 16,1 km/h (3 Bft) 98,28 %
04.10.2020 09:50 11,3 C 10,6 C 10,0 C 93 % 990,2 hPa 0,0 l/m 0 min 0 min 112 W/m 16,1 km/h (3 Bft) 97,87 %
04.10.2020 09:52 11,4 C 11,1 C 10,0 C 93 % 990,2 hPa 0,0 l/m 0 min 0 min 146 W/m 29,0 km/h (5 Bft) 97,14 %
04.10.2020 09:54 11,4 C 11,1 C 10,6 C 93 % 990,3 hPa 0,0 l/m 2 min 0 min 172 W/m 22,5 km/h (4 Bft) 97,87 %
04.10.2020 09:56 11,4 C 11,7 C 10,6 C 93 % 990,3 hPa 0,0 l/m 2 min 0 min 187 W/m 25,7 km/h (4 Bft) 98,04 %
04.10.2020 09:58 11,5 C 11,7 C 10,6 C 93 % 990,4 hPa 0,0 l/m 2 min 0 min 191 W/m 25,7 km/h (4 Bft) 97,87 %
04.10.2020 10:00 11,6 C 11,7 C 11,1 C 93 % 990,3 hPa 0,0 l/m 2 min 0 min 165 W/m 22,5 km/h (4 Bft) 97,87 %
04.10.2020 10:02 11,6 C 11,7 C 11,1 C 93 % 990,3 hPa 0,0 l/m 0 min 0 min 155 W/m 16,1 km/h (3 Bft) 97,87 %
04.10.2020 10:04 11,7 C 12,2 C 11,1 C 93 % 990,5 hPa 0,0 l/m 2 min 0 min 170 W/m 29,0 km/h (5 Bft) 97,78 %
04.10.2020 10:06 11,7 C 11,7 C 11,1 C 93 % 990,5 hPa 0,0 l/m 0 min 0 min 122 W/m 22,5 km/h (4 Bft) 95,74 %
04.10.2020 10:08 11,7 C 11,7 C 11,1 C 93 % 990,5 hPa 0,0 l/m 0 min 0 min 111 W/m 35,4 km/h (5 Bft) 97,83 %
04.10.2020 10:10 11,8 C 11,7 C 11,1 C 93 % 990,6 hPa 0,0 l/m 0 min 0 min 104 W/m 29,0 km/h (5 Bft) 95,74 %
04.10.2020 10:12 11,8 C 11,7 C 11,1 C 92 % 990,5 hPa 0,0 l/m 0 min 0 min 96 W/m 22,5 km/h (4 Bft) 100,00 %
04.10.2020 10:14 11,8 C 11,7 C 10,6 C 91 % 990,5 hPa 0,0 l/m 0 min 0 min 93 W/m 29,0 km/h (5 Bft) 97,87 %
04.10.2020 10:16 11,8 C 11,7 C 10,6 C 91 % 990,6 hPa 0,0 l/m 0 min 0 min 95 W/m 29,0 km/h (5 Bft) 100,00 %
04.10.2020 10:18 11,9 C 11,7 C 10,6 C 91 % 990,7 hPa 0,0 l/m 0 min 0 min 92 W/m 25,7 km/h (4 Bft) 97,87 %
04.10.2020 10:20 11,9 C 11,7 C 10,6 C 91 % 990,7 hPa 0,0 l/m 0 min 0 min 99 W/m 22,5 km/h (4 Bft) 100,00 %
04.10.2020 10:22 11,9 C 11,7 C 11,1 C 91 % 990,9 hPa 0,0 l/m 0 min 0 min 102 W/m 16,1 km/h (3 Bft) 100,00 %
04.10.2020 10:24 12,0 C 11,7 C 11,1 C 90 % 990,9 hPa 0,0 l/m 0 min 0 min 106 W/m 22,5 km/h (4 Bft) 97,87 %
04.10.2020 10:26 12,1 C 11,7 C 11,1 C 90 % 991,0 hPa 0,0 l/m 0 min 0 min 121 W/m 19,3 km/h (3 Bft) 100,00 %
04.10.2020 10:28 12,1 C 12,2 C 11,1 C 90 % 991,1 hPa 0,0 l/m 0 min 0 min 147 W/m 25,7 km/h (4 Bft) 100,00 %
04.10.2020 10:30 12,1 C 12,2 C 11,1 C 90 % 991,1 hPa 0,0 l/m 0 min 0 min 173 W/m 25,7 km/h (4 Bft) 97,87 %
04.10.2020 10:32 12,2 C 12,8 C 11,7 C 90 % 991,1 hPa 0,0 l/m 2 min 0 min 200 W/m 22,5 km/h (4 Bft) 100,00 %
04.10.2020 10:34 12,2 C 13,3 C 11,7 C 90 % 991,1 hPa 0,0 l/m 2 min 0 min 221 W/m 32,2 km/h (5 Bft) 97,87 %
04.10.2020 10:36 12,3 C 13,9 C 11,7 C 90 % 991,2 hPa 0,0 l/m 2 min 0 min 254 W/m 25,7 km/h (4 Bft) 100,00 %
04.10.2020 10:38 12,3 C 13,9 C 12,2 C 89 % 991,2 hPa 0,0 l/m 2 min 0 min 248 W/m 32,2 km/h (5 Bft) 100,00 %
04.10.2020 10:40 12,4 C 13,9 C 12,2 C 89 % 991,2 hPa 0,0 l/m 2 min 0 min 216 W/m 16,1 km/h (3 Bft) 100,00 %
04.10.2020 10:42 12,5 C 13,9 C 12,2 C 89 % 991,4 hPa 0,0 l/m 0 min 0 min 178 W/m 19,3 km/h (3 Bft) 97,87 %
04.10.2020 10:44 12,6 C 13,3 C 11,7 C 89 % 991,4 hPa 0,0 l/m 0 min 0 min 130 W/m 22,5 km/h (4 Bft) 100,00 %
04.10.2020 10:46 12,6 C 12,8 C 11,7 C 88 % 991,5 hPa 0,0 l/m 0 min 0 min 113 W/m 35,4 km/h (5 Bft) 97,87 %
04.10.2020 10:48 12,6 C 12,8 C 11,7 C 88 % 991,5 hPa 0,0 l/m 0 min 0 min 114 W/m 48,3 km/h (6 Bft) 95,74 %
04.10.2020 10:50 12,7 C 12,8 C 11,7 C 87 % 991,6 hPa 0,0 l/m 0 min 0 min 116 W/m 19,3 km/h (3 Bft) 97,87 %
04.10.2020 10:52 12,7 C 12,8 C 11,7 C 87 % 991,6 hPa 0,0 l/m 0 min 0 min 117 W/m 22,5 km/h (4 Bft) 97,87 %
04.10.2020 10:54 12,7 C 12,8 C 11,7 C 87 % 991,6 hPa 0,0 l/m 0 min 0 min 103 W/m 22,5 km/h (4 Bft) 97,87 %
04.10.2020 10:56 12,7 C 12,8 C 11,7 C 87 % 991,7 hPa 0,0 l/m 0 min 0 min 114 W/m 25,7 km/h (4 Bft) 97,83 %
04.10.2020 10:58 12,8 C 12,8 C 11,7 C 86 % 991,7 hPa 0,0 l/m 0 min 0 min 128 W/m 35,4 km/h (5 Bft) 95,74 %
04.10.2020 11:00 12,8 C 12,8 C 11,7 C 86 % 991,8 hPa 0,0 l/m 0 min 0 min 131 W/m 38,6 km/h (5 Bft) 97,87 %
04.10.2020 11:02 12,8 C 12,8 C 11,7 C 85 % 991,8 hPa 0,0 l/m 0 min 0 min 121 W/m 48,3 km/h (6 Bft) 97,87 %
04.10.2020 11:04 12,8 C 12,8 C 11,7 C 85 % 991,9 hPa 0,0 l/m 0 min 0 min 132 W/m 32,2 km/h (5 Bft) 97,87 %
04.10.2020 11:06 12,8 C 12,8 C 11,7 C 85 % 991,9 hPa 0,0 l/m 0 min 0 min 119 W/m 22,5 km/h (4 Bft) 95,65 %
04.10.2020 11:08 12,9 C 12,8 C 11,7 C 85 % 992,0 hPa 0,0 l/m 0 min 0 min 109 W/m 29,0 km/h (5 Bft) 95,74 %
04.10.2020 11:10 12,9 C 12,8 C 11,7 C 85 % 992,1 hPa 0,0 l/m 0 min 0 min 107 W/m 22,5 km/h (4 Bft) 97,87 %
04.10.2020 11:12 12,9 C 12,8 C 11,7 C 84 % 992,2 hPa 0,0 l/m 0 min 0 min 106 W/m 35,4 km/h (5 Bft) 95,74 %
04.10.2020 11:14 12,9 C 12,8 C 11,7 C 84 % 992,2 hPa 0,0 l/m 0 min 0 min 104 W/m 29,0 km/h (5 Bft) 97,87 %
04.10.2020 11:16 12,9 C 12,8 C 11,7 C 84 % 992,3 hPa 0,0 l/m 0 min 0 min 119 W/m 29,0 km/h (5 Bft) 95,74 %
04.10.2020 11:18 12,9 C 12,8 C 11,7 C 83 % 992,3 hPa 0,0 l/m 0 min 0 min 140 W/m 32,2 km/h (5 Bft) 97,83 %
04.10.2020 11:20 12,9 C 13,3 C 11,7 C 83 % 992,3 hPa 0,0 l/m 0 min 0 min 156 W/m 22,5 km/h (4 Bft) 97,87 %
04.10.2020 11:22 13,0 C 13,3 C 11,7 C 83 % 992,3 hPa 0,0 l/m 0 min 0 min 169 W/m 45,1 km/h (6 Bft) 95,74 %
04.10.2020 11:24 13,1 C 13,3 C 11,7 C 83 % 992,3 hPa 0,0 l/m 0 min 0 min 173 W/m 41,8 km/h (6 Bft) 97,87 %
04.10.2020 11:26 13,1 C 13,3 C 11,7 C 82 % 992,4 hPa 0,0 l/m 0 min 0 min 181 W/m 32,2 km/h (5 Bft) 95,74 %
04.10.2020 11:28 13,1 C 13,3 C 12,2 C 83 % 992,4 hPa 0,0 l/m 0 min 0 min 191 W/m 25,7 km/h (4 Bft) 95,74 %
04.10.2020 11:30 13,1 C 13,3 C 12,2 C 82 % 992,3 hPa 0,0 l/m 0 min 0 min 185 W/m 38,6 km/h (5 Bft) 95,65 %
04.10.2020 11:32 13,2 C 13,3 C 12,2 C 82 % 992,4 hPa 0,0 l/m 0 min 0 min 174 W/m 25,7 km/h (4 Bft) 97,87 %
04.10.2020 11:34 13,2 C 13,3 C 12,2 C 82 % 992,5 hPa 0,0 l/m 0 min 0 min 123 W/m 22,5 km/h (4 Bft) 97,87 %
04.10.2020 11:36 13,2 C 12,8 C 11,7 C 82 % 992,6 hPa 0,0 l/m 0 min 0 min 85 W/m 32,2 km/h (5 Bft) 93,62 %
04.10.2020 11:38 13,2 C 13,3 C 11,7 C 82 % 992,5 hPa 0,0 l/m 0 min 0 min 106 W/m 19,3 km/h (3 Bft) 97,87 %
04.10.2020 11:40 13,3 C 13,3 C 11,7 C 82 % 992,6 hPa 0,0 l/m 0 min 0 min 141 W/m 35,4 km/h (5 Bft) 95,74 %
04.10.2020 11:42 13,3 C 13,3 C 12,2 C 81 % 992,6 hPa 0,0 l/m 0 min 0 min 182 W/m 25,7 km/h (4 Bft) 97,83 %
04.10.2020 11:44 13,3 C 13,3 C 12,2 C 81 % 992,7 hPa 0,0 l/m 0 min 0 min 120 W/m 22,5 km/h (4 Bft) 97,87 %
04.10.2020 11:46 13,3 C 12,8 C 11,7 C 81 % 992,7 hPa 0,0 l/m 0 min 0 min 126 W/m 25,7 km/h (4 Bft) 97,87 %
04.10.2020 11:48 13,3 C 13,3 C 11,7 C 81 % 992,7 hPa 0,0 l/m 0 min 0 min 138 W/m 25,7 km/h (4 Bft) 97,87 %
04.10.2020 11:50 13,3 C 14,4 C 12,2 C 82 % 992,8 hPa 0,0 l/m 0 min 0 min 176 W/m 29,0 km/h (5 Bft) 97,87 %
04.10.2020 11:52 13,4 C 14,4 C 12,2 C 82 % 992,9 hPa 0,0 l/m 2 min 0 min 260 W/m 35,4 km/h (5 Bft) 97,87 %
04.10.2020 11:54 13,4 C 14,4 C 12,2 C 81 % 992,9 hPa 0,0 l/m 0 min 0 min 251 W/m 35,4 km/h (5 Bft) 97,83 %
04.10.2020 11:56 13,4 C 13,9 C 12,2 C 81 % 993,0 hPa 0,0 l/m 0 min 0 min 194 W/m 51,5 km/h (7 Bft) 93,62 %
04.10.2020 11:58 13,5 C 13,3 C 12,2 C 81 % 992,9 hPa 0,0 l/m 0 min 0 min 186 W/m 38,6 km/h (5 Bft) 97,87 %
04.10.2020 12:00 13,5 C 13,9 C 12,2 C 80 % 993,0 hPa 0,0 l/m 0 min 0 min 231 W/m 29,0 km/h (5 Bft) 97,83 %
04.10.2020 12:02 13,5 C 13,9 C 12,2 C 80 % 993,0 hPa 0,0 l/m 2 min 0 min 267 W/m 25,7 km/h (4 Bft) 54,55 %
04.10.2020 12:04 13,6 C 14,4 C 12,8 C 80 % 993,1 hPa 0,0 l/m 2 min 0 min 300 W/m 51,5 km/h (7 Bft) 97,87 %
04.10.2020 12:08 13,6 C 13,9 C 12,2 C 79 % 993,2 hPa 0,0 l/m 0 min 0 min 215 W/m 57,9 km/h (7 Bft) 96,77 %
04.10.2020 12:10 13,6 C 13,9 C 12,2 C 78 % 993,2 hPa 0,0 l/m 0 min 0 min 198 W/m 74,0 km/h (8 Bft) 95,74 %
04.10.2020 12:12 13,7 C 13,9 C 12,2 C 78 % 993,2 hPa 0,0 l/m 0 min 0 min 184 W/m 45,1 km/h (6 Bft) 95,74 %
04.10.2020 12:14 13,7 C 13,9 C 12,2 C 78 % 993,3 hPa 0,0 l/m 0 min 0 min 188 W/m 35,4 km/h (5 Bft) 95,74 %
04.10.2020 12:16 13,7 C 13,9 C 12,2 C 78 % 993,2 hPa 0,0 l/m 0 min 0 min 239 W/m 38,6 km/h (5 Bft) 93,62 %
04.10.2020 12:18 13,7 C 14,4 C 12,2 C 79 % 993,3 hPa 0,0 l/m 2 min 0 min 282 W/m 29,0 km/h (5 Bft) 93,62 %
04.10.2020 12:20 13,7 C 14,4 C 12,2 C 79 % 993,3 hPa 0,0 l/m 2 min 0 min 301 W/m 35,4 km/h (5 Bft) 91,49 %
04.10.2020 12:22 13,8 C 13,9 C 12,8 C 79 % 993,3 hPa 0,0 l/m 0 min 0 min 259 W/m 54,7 km/h (7 Bft) 93,48 %
04.10.2020 12:24 13,7 C 13,9 C 12,2 C 78 % 993,5 hPa 0,0 l/m 0 min 0 min 239 W/m 45,1 km/h (6 Bft) 95,74 %
04.10.2020 12:26 13,7 C 14,4 C 12,2 C 78 % 993,5 hPa 0,0 l/m 2 min 0 min 313 W/m 45,1 km/h (6 Bft) 95,74 %
04.10.2020 12:28 13,7 C 15,0 C 12,2 C 78 % 993,4 hPa 0,0 l/m 2 min 0 min 332 W/m 35,4 km/h (5 Bft) 93,62 %
04.10.2020 12:30 13,7 C 15,0 C 12,2 C 78 % 993,5 hPa 0,0 l/m 2 min 0 min 300 W/m 32,2 km/h (5 Bft) 95,74 %
04.10.2020 12:32 13,8 C 14,4 C 12,8 C 78 % 993,8 hPa 0,0 l/m 2 min 0 min 303 W/m 48,3 km/h (6 Bft) 97,83 %
04.10.2020 12:34 13,8 C 14,4 C 12,8 C 77 % 993,6 hPa 0,0 l/m 0 min 0 min 230 W/m 29,0 km/h (5 Bft) 97,87 %
04.10.2020 12:36 13,8 C 13,9 C 12,2 C 76 % 993,6 hPa 0,0 l/m 0 min 0 min 201 W/m 32,2 km/h (5 Bft) 97,87 %
04.10.2020 12:38 13,8 C 13,9 C 12,2 C 76 % 993,8 hPa 0,0 l/m 0 min 0 min 195 W/m 32,2 km/h (5 Bft) 97,87 %
04.10.2020 12:40 13,8 C 13,9 C 12,2 C 76 % 993,8 hPa 0,0 l/m 0 min 0 min 194 W/m 32,2 km/h (5 Bft) 97,87 %
04.10.2020 12:42 13,8 C 13,9 C 12,2 C 76 % 993,8 hPa 0,0 l/m 0 min 0 min 263 W/m 54,7 km/h (7 Bft) 97,87 %
04.10.2020 12:44 13,7 C 15,0 C 12,8 C 76 % 993,9 hPa 0,0 l/m 2 min 0 min 278 W/m 45,1 km/h (6 Bft) 97,83 %
04.10.2020 12:46 13,8 C 15,6 C 12,8 C 75 % 993,8 hPa 0,0 l/m 2 min 0 min 404 W/m 35,4 km/h (5 Bft) 97,87 %
04.10.2020 12:48 13,8 C 16,7 C 12,8 C 75 % 993,9 hPa 0,0 l/m 2 min 0 min 494 W/m 48,3 km/h (6 Bft) 97,87 %
04.10.2020 12:50 13,9 C 17,8 C 12,8 C 75 % 993,9 hPa 0,0 l/m 2 min 0 min 547 W/m 35,4 km/h (5 Bft) 100,00 %
04.10.2020 12:52 14,1 C 18,9 C 13,3 C 74 % 994,0 hPa 0,0 l/m 2 min 0 min 720 W/m 35,4 km/h (5 Bft) 100,00 %
04.10.2020 12:54 14,3 C 18,3 C 12,8 C 74 % 993,9 hPa 0,0 l/m 2 min 0 min 703 W/m 51,5 km/h (7 Bft) 97,87 %
04.10.2020 12:56 14,3 C 18,9 C 12,8 C 73 % 994,0 hPa 0,0 l/m 2 min 0 min 714 W/m 29,0 km/h (5 Bft) 100,00 %
04.10.2020 12:58 14,3 C 17,2 C 13,3 C 72 % 994,2 hPa 0,0 l/m 2 min 0 min 631 W/m 35,4 km/h (5 Bft) 100,00 %
04.10.2020 13:00 14,5 C 16,7 C 12,8 C 72 % 994,1 hPa 0,0 l/m 2 min 0 min 392 W/m 38,6 km/h (5 Bft) 97,87 %
04.10.2020 13:02 14,5 C 15,6 C 12,8 C 71 % 994,3 hPa 0,0 l/m 0 min 0 min 265 W/m 64,4 km/h (8 Bft) 100,00 %
04.10.2020 13:04 14,6 C 16,7 C 12,8 C 71 % 994,2 hPa 0,0 l/m 0 min 0 min 209 W/m 45,1 km/h (6 Bft) 100,00 %
04.10.2020 13:06 14,6 C 16,1 C 12,8 C 71 % 994,2 hPa 0,0 l/m 0 min 0 min 208 W/m 45,1 km/h (6 Bft) 100,00 %
04.10.2020 13:08 14,6 C 15,0 C 12,8 C 71 % 994,3 hPa 0,0 l/m 0 min 0 min 204 W/m 29,0 km/h (5 Bft) 100,00 %
04.10.2020 13:10 14,6 C 15,6 C 12,8 C 70 % 994,3 hPa 0,0 l/m 0 min 0 min 221 W/m 32,2 km/h (5 Bft) 100,00 %
04.10.2020 13:12 14,6 C 16,7 C 12,8 C 70 % 994,4 hPa 0,0 l/m 0 min 0 min 255 W/m 41,8 km/h (6 Bft) 100,00 %
04.10.2020 13:14 14,6 C 16,1 C 12,8 C 70 % 994,4 hPa 0,0 l/m 2 min 0 min 316 W/m 38,6 km/h (5 Bft) 97,87 %
04.10.2020 13:16 14,6 C 16,7 C 12,8 C 69 % 994,5 hPa 0,0 l/m 0 min 0 min 228 W/m 61,2 km/h (7 Bft) 97,87 %
04.10.2020 13:18 14,6 C 17,8 C 12,8 C 69 % 994,4 hPa 0,0 l/m 2 min 0 min 492 W/m 41,8 km/h (6 Bft) 97,83 %
04.10.2020 13:20 14,7 C 18,3 C 12,8 C 68 % 994,5 hPa 0,0 l/m 2 min 0 min 729 W/m 35,4 km/h (5 Bft) 95,74 %
04.10.2020 13:22 14,7 C 18,3 C 12,8 C 67 % 994,5 hPa 0,0 l/m 2 min 0 min 721 W/m 45,1 km/h (6 Bft) 97,87 %
04.10.2020 13:24 14,8 C 18,3 C 12,8 C 67 % 994,8 hPa 0,0 l/m 2 min 0 min 658 W/m 38,6 km/h (5 Bft) 93,62 %
04.10.2020 13:26 14,8 C 18,3 C 12,8 C 66 % 994,5 hPa 0,0 l/m 2 min 0 min 676 W/m 38,6 km/h (5 Bft) 97,87 %
04.10.2020 13:28 14,9 C 18,3 C 12,8 C 66 % 994,5 hPa 0,0 l/m 2 min 0 min 664 W/m 38,6 km/h (5 Bft) 97,87 %
04.10.2020 13:30 14,9 C 18,3 C 13,3 C 66 % 994,8 hPa 0,0 l/m 2 min 0 min 652 W/m 41,8 km/h (6 Bft) 97,83 %
04.10.2020 13:32 15,0 C 17,8 C 13,3 C 66 % 994,7 hPa 0,0 l/m 2 min 0 min 626 W/m 35,4 km/h (5 Bft) 97,87 %
04.10.2020 13:34 15,1 C 17,8 C 13,3 C 66 % 994,8 hPa 0,0 l/m 2 min 0 min 597 W/m 32,2 km/h (5 Bft) 97,87 %
04.10.2020 13:36 15,1 C 18,3 C 13,3 C 66 % 994,9 hPa 0,0 l/m 2 min 0 min 726 W/m 48,3 km/h (6 Bft) 97,87 %
04.10.2020 13:38 15,1 C 17,8 C 13,3 C 66 % 994,9 hPa 0,0 l/m 2 min 0 min 726 W/m 41,8 km/h (6 Bft) 95,74 %
04.10.2020 13:40 15,1 C 17,2 C 13,9 C 66 % 995,0 hPa 0,0 l/m 2 min 0 min 703 W/m 48,3 km/h (6 Bft) 97,87 %
04.10.2020 13:42 15,1 C 17,8 C 13,9 C 66 % 994,9 hPa 0,0 l/m 2 min 0 min 707 W/m 35,4 km/h (5 Bft) 95,65 %
04.10.2020 13:44 15,2 C 17,8 C 13,9 C 65 % 994,9 hPa 0,0 l/m 2 min 0 min 674 W/m 41,8 km/h (6 Bft) 97,87 %
04.10.2020 13:46 15,2 C 17,8 C 14,4 C 66 % 995,0 hPa 0,0 l/m 2 min 0 min 654 W/m 38,6 km/h (5 Bft) 97,87 %
04.10.2020 13:48 15,2 C 17,8 C 13,9 C 66 % 994,9 hPa 0,0 l/m 2 min 0 min 665 W/m 45,1 km/h (6 Bft) 97,87 %
04.10.2020 13:50 15,2 C 18,3 C 13,9 C 66 % 994,8 hPa 0,0 l/m 2 min 0 min 694 W/m 38,6 km/h (5 Bft) 97,87 %
04.10.2020 13:52 15,2 C 17,8 C 13,9 C 67 % 994,9 hPa 0,0 l/m 2 min 0 min 707 W/m 32,2 km/h (5 Bft) 97,87 %
04.10.2020 13:54 15,2 C 16,7 C 13,3 C 67 % 994,9 hPa 0,0 l/m 2 min 0 min 621 W/m 29,0 km/h (5 Bft) 97,87 %
04.10.2020 13:56 15,2 C 15,6 C 13,3 C 66 % 995,0 hPa 0,0 l/m 0 min 0 min 199 W/m 45,1 km/h (6 Bft) 100,00 %
04.10.2020 13:58 15,1 C 15,0 C 13,3 C 66 % 995,0 hPa 0,0 l/m 0 min 0 min 186 W/m 22,5 km/h (4 Bft) 100,00 %
04.10.2020 14:00 15,1 C 15,0 C 13,3 C 66 % 995,1 hPa 0,0 l/m 0 min 0 min 222 W/m 35,4 km/h (5 Bft) 100,00 %
04.10.2020 14:02 15,0 C 15,0 C 13,3 C 66 % 995,0 hPa 0,0 l/m 0 min 0 min 249 W/m 29,0 km/h (5 Bft) 97,83 %
04.10.2020 14:04 14,9 C 15,0 C 13,3 C 66 % 995,2 hPa 0,0 l/m 0 min 0 min 243 W/m 41,8 km/h (6 Bft) 100,00 %
04.10.2020 14:06 14,9 C 15,0 C 13,3 C 66 % 995,2 hPa 0,0 l/m 0 min 0 min 227 W/m 45,1 km/h (6 Bft) 100,00 %
04.10.2020 14:08 14,8 C 15,6 C 13,3 C 67 % 995,1 hPa 0,0 l/m 0 min 0 min 233 W/m 22,5 km/h (4 Bft) 100,00 %
04.10.2020 14:10 14,8 C 15,0 C 13,3 C 67 % 995,1 hPa 0,0 l/m 0 min 0 min 211 W/m 32,2 km/h (5 Bft) 100,00 %
04.10.2020 14:12 14,8 C 15,0 C 13,3 C 67 % 995,2 hPa 0,0 l/m 0 min 0 min 226 W/m 32,2 km/h (5 Bft) 100,00 %
04.10.2020 14:14 14,7 C 15,0 C 13,3 C 68 % 995,1 hPa 0,0 l/m 0 min 0 min 246 W/m 22,5 km/h (4 Bft) 97,87 %
04.10.2020 14:16 14,7 C 15,0 C 13,3 C 68 % 995,1 hPa 0,0 l/m 0 min 0 min 240 W/m 35,4 km/h (5 Bft) 97,87 %
04.10.2020 14:18 14,7 C 14,4 C 12,8 C 67 % 995,3 hPa 0,0 l/m 0 min 0 min 228 W/m 41,8 km/h (6 Bft) 97,87 %
04.10.2020 14:20 14,7 C 15,0 C 13,3 C 67 % 995,1 hPa 0,0 l/m 0 min 0 min 232 W/m 32,2 km/h (5 Bft) 97,87 %
04.10.2020 14:22 14,7 C 16,1 C 13,3 C 68 % 995,2 hPa 0,0 l/m 0 min 0 min 247 W/m 29,0 km/h (5 Bft) 97,87 %
04.10.2020 14:24 14,7 C 16,1 C 13,3 C 68 % 995,1 hPa 0,0 l/m 0 min 0 min 246 W/m 32,2 km/h (5 Bft) 97,83 %
04.10.2020 14:26 14,7 C 15,0 C 13,3 C 68 % 995,1 hPa 0,0 l/m 0 min 0 min 172 W/m 32,2 km/h (5 Bft) 97,87 %
04.10.2020 14:28 14,7 C 15,0 C 12,8 C 68 % 995,2 hPa 0,0 l/m 0 min 0 min 191 W/m 29,0 km/h (5 Bft) 95,74 %
04.10.2020 14:30 14,7 C 15,6 C 13,3 C 68 % 995,1 hPa 0,0 l/m 0 min 0 min 240 W/m 29,0 km/h (5 Bft) 97,87 %
04.10.2020 14:32 14,7 C 16,7 C 13,3 C 69 % 995,2 hPa 0,0 l/m 0 min 0 min 253 W/m 22,5 km/h (4 Bft) 97,87 %
04.10.2020 14:34 14,8 C 16,7 C 13,3 C 69 % 995,0 hPa 0,0 l/m 2 min 0 min 290 W/m 35,4 km/h (5 Bft) 97,87 %
04.10.2020 14:36 14,8 C 18,3 C 13,3 C 68 % 995,0 hPa 0,0 l/m 2 min 0 min 516 W/m 45,1 km/h (6 Bft) 97,83 %
04.10.2020 14:38 14,9 C 18,9 C 13,3 C 68 % 995,0 hPa 0,0 l/m 2 min 0 min 636 W/m 38,6 km/h (5 Bft) 97,87 %
04.10.2020 14:40 15,0 C 18,3 C 13,3 C 68 % 995,0 hPa 0,0 l/m 2 min 0 min 635 W/m 35,4 km/h (5 Bft) 97,87 %
04.10.2020 14:42 15,1 C 18,3 C 13,3 C 68 % 994,9 hPa 0,0 l/m 2 min 0 min 657 W/m 35,4 km/h (5 Bft) 97,87 %
04.10.2020 14:44 15,1 C 18,9 C 13,3 C 68 % 995,1 hPa 0,0 l/m 2 min 0 min 642 W/m 48,3 km/h (6 Bft) 97,87 %
04.10.2020 14:46 15,2 C 18,3 C 13,3 C 68 % 995,2 hPa 0,0 l/m 2 min 0 min 609 W/m 45,1 km/h (6 Bft) 95,74 %
04.10.2020 14:48 15,2 C 17,8 C 13,3 C 67 % 995,1 hPa 0,0 l/m 2 min 0 min 610 W/m 29,0 km/h (5 Bft) 95,65 %
04.10.2020 14:50 15,3 C 18,3 C 13,3 C 67 % 995,1 hPa 0,0 l/m 2 min 0 min 612 W/m 22,5 km/h (4 Bft) 97,87 %
04.10.2020 14:52 15,3 C 18,3 C 13,3 C 67 % 995,1 hPa 0,0 l/m 2 min 0 min 627 W/m 29,0 km/h (5 Bft) 100,00 %
04.10.2020 14:54 15,3 C 17,2 C 13,3 C 68 % 995,1 hPa 0,0 l/m 2 min 0 min 336 W/m 35,4 km/h (5 Bft) 95,74 %
04.10.2020 14:56 15,3 C 16,7 C 13,3 C 67 % 995,3 hPa 0,0 l/m 2 min 0 min 286 W/m 32,2 km/h (5 Bft) 100,00 %
04.10.2020 14:58 15,3 C 16,1 C 13,3 C 68 % 995,2 hPa 0,0 l/m 0 min 0 min 168 W/m 25,7 km/h (4 Bft) 100,00 %
04.10.2020 15:00 15,3 C 17,2 C 13,3 C 67 % 995,2 hPa 0,0 l/m 0 min 0 min 181 W/m 29,0 km/h (5 Bft) 100,00 %
04.10.2020 15:02 15,3 C 17,2 C 13,3 C 67 % 995,3 hPa 0,0 l/m 0 min 0 min 181 W/m 35,4 km/h (5 Bft) 97,87 %
04.10.2020 15:04 15,3 C 17,2 C 13,9 C 68 % 995,3 hPa 0,0 l/m 0 min 0 min 189 W/m 29,0 km/h (5 Bft) 100,00 %
04.10.2020 15:06 15,3 C 17,8 C 13,9 C 68 % 995,3 hPa 0,0 l/m 0 min 0 min 234 W/m 25,7 km/h (4 Bft) 100,00 %
04.10.2020 15:08 15,4 C 17,8 C 13,9 C 68 % 995,5 hPa 0,0 l/m 2 min 0 min 505 W/m 45,1 km/h (6 Bft) 100,00 %
04.10.2020 15:10 15,4 C 16,1 C 13,9 C 68 % 995,4 hPa 0,0 l/m 0 min 0 min 193 W/m 29,0 km/h (5 Bft) 97,83 %
04.10.2020 15:12 15,3 C 15,6 C 13,9 C 68 % 995,5 hPa 0,0 l/m 0 min 0 min 212 W/m 41,8 km/h (6 Bft) 97,87 %
04.10.2020 15:14 15,3 C 15,6 C 13,3 C 68 % 995,4 hPa 0,0 l/m 2 min 0 min 247 W/m 38,6 km/h (5 Bft) 100,00 %
04.10.2020 15:16 15,3 C 16,1 C 13,9 C 68 % 995,5 hPa 0,0 l/m 2 min 0 min 351 W/m 45,1 km/h (6 Bft) 100,00 %
04.10.2020 15:18 15,3 C 15,6 C 13,3 C 68 % 995,6 hPa 0,0 l/m 0 min 0 min 206 W/m 35,4 km/h (5 Bft) 100,00 %
04.10.2020 15:20 15,3 C 15,0 C 13,3 C 68 % 995,6 hPa 0,0 l/m 0 min 0 min 129 W/m 22,5 km/h (4 Bft) 97,87 %
04.10.2020 15:22 15,2 C 14,4 C 13,3 C 68 % 995,6 hPa 0,0 l/m 0 min 0 min 111 W/m 22,5 km/h (4 Bft) 97,83 %
04.10.2020 15:24 15,2 C 14,4 C 13,3 C 68 % 995,8 hPa 0,0 l/m 0 min 0 min 96 W/m 32,2 km/h (5 Bft) 97,87 %
04.10.2020 15:26 15,1 C 13,9 C 12,8 C 68 % 995,7 hPa 0,0 l/m 0 min 0 min 66 W/m 25,7 km/h (4 Bft) 97,87 %
04.10.2020 15:28 15,1 C 13,9 C 12,8 C 69 % 995,8 hPa 0,0 l/m 0 min 0 min 66 W/m 19,3 km/h (3 Bft) 97,87 %
04.10.2020 15:30 15,0 C 13,9 C 12,8 C 69 % 995,7 hPa 0,0 l/m 0 min 0 min 65 W/m 22,5 km/h (4 Bft) 97,87 %
04.10.2020 15:32 14,9 C 13,9 C 12,8 C 69 % 995,8 hPa 0,0 l/m 0 min 0 min 59 W/m 22,5 km/h (4 Bft) 97,87 %
04.10.2020 15:34 14,8 C 13,9 C 12,8 C 69 % 995,7 hPa 0,0 l/m 0 min 0 min 54 W/m 12,9 km/h (3 Bft) 95,65 %
04.10.2020 15:36 14,8 C 13,9 C 12,8 C 70 % 995,8 hPa 0,0 l/m 0 min 0 min 62 W/m 25,7 km/h (4 Bft) 97,87 %
04.10.2020 15:38 14,7 C 13,9 C 12,8 C 70 % 995,8 hPa 0,0 l/m 0 min 0 min 61 W/m 29,0 km/h (5 Bft) 97,87 %
04.10.2020 15:40 14,7 C 13,9 C 12,8 C 70 % 995,8 hPa 0,0 l/m 0 min 0 min 63 W/m 16,1 km/h (3 Bft) 95,74 %
04.10.2020 15:42 14,6 C 13,9 C 12,8 C 71 % 995,9 hPa 0,0 l/m 0 min 0 min 62 W/m 22,5 km/h (4 Bft) 93,62 %
04.10.2020 15:44 14,6 C 13,9 C 12,8 C 71 % 995,9 hPa 0,0 l/m 0 min 0 min 56 W/m 22,5 km/h (4 Bft) 93,62 %
04.10.2020 15:46 14,5 C 13,3 C 12,8 C 71 % 995,9 hPa 0,0 l/m 0 min 0 min 48 W/m 22,5 km/h (4 Bft) 95,65 %
04.10.2020 15:48 14,4 C 13,3 C 12,2 C 71 % 995,9 hPa 0,0 l/m 0 min 0 min 44 W/m 22,5 km/h (4 Bft) 95,74 %
04.10.2020 15:50 14,4 C 13,3 C 12,2 C 71 % 995,9 hPa 0,0 l/m 0 min 0 min 48 W/m 22,5 km/h (4 Bft) 95,74 %
04.10.2020 15:52 14,3 C 13,3 C 12,2 C 71 % 995,9 hPa 0,0 l/m 0 min 0 min 52 W/m 16,1 km/h (3 Bft) 95,74 %
04.10.2020 15:54 14,3 C 13,3 C 12,2 C 72 % 995,9 hPa 0,0 l/m 0 min 0 min 51 W/m 25,7 km/h (4 Bft) 95,74 %
04.10.2020 15:56 14,3 C 13,3 C 12,8 C 72 % 995,9 hPa 0,0 l/m 0 min 0 min 54 W/m 12,9 km/h (3 Bft) 91,49 %
04.10.2020 15:58 14,3 C 13,3 C 12,2 C 72 % 996,0 hPa 0,0 l/m 0 min 0 min 54 W/m 19,3 km/h (3 Bft) 95,65 %
04.10.2020 16:00 14,3 C 13,3 C 12,2 C 72 % 996,0 hPa 0,0 l/m 0 min 0 min 62 W/m 16,1 km/h (3 Bft) 93,62 %
04.10.2020 16:02 14,3 C 13,9 C 12,2 C 73 % 996,0 hPa 0,0 l/m 0 min 0 min 84 W/m 22,5 km/h (4 Bft) 95,74 %
04.10.2020 16:04 14,3 C 13,9 C 12,8 C 73 % 996,0 hPa 0,0 l/m 0 min 0 min 78 W/m 16,1 km/h (3 Bft) 95,74 %
04.10.2020 16:06 14,3 C 13,9 C 12,8 C 73 % 996,0 hPa 0,0 l/m 0 min 0 min 62 W/m 22,5 km/h (4 Bft) 95,74 %
04.10.2020 16:08 14,3 C 13,3 C 12,2 C 73 % 996,0 hPa 0,0 l/m 0 min 0 min 62 W/m 19,3 km/h (3 Bft) 95,74 %
04.10.2020 16:10 14,3 C 13,3 C 12,2 C 74 % 996,1 hPa 0,0 l/m 0 min 0 min 69 W/m 22,5 km/h (4 Bft) 95,65 %
04.10.2020 16:12 14,3 C 13,3 C 12,2 C 74 % 996,1 hPa 0,0 l/m 0 min 0 min 61 W/m 25,7 km/h (4 Bft) 95,74 %
04.10.2020 16:14 14,2 C 13,3 C 12,2 C 74 % 996,1 hPa 0,0 l/m 0 min 0 min 66 W/m 19,3 km/h (3 Bft) 95,74 %
04.10.2020 16:16 14,2 C 13,3 C 12,2 C 74 % 996,1 hPa 0,0 l/m 0 min 0 min 75 W/m 16,1 km/h (3 Bft) 95,74 %
04.10.2020 16:18 14,1 C 13,3 C 12,2 C 74 % 996,0 hPa 0,0 l/m 0 min 0 min 71 W/m 19,3 km/h (3 Bft) 95,74 %
04.10.2020 16:20 14,1 C 13,3 C 12,2 C 74 % 996,0 hPa 0,0 l/m 0 min 0 min 66 W/m 6,4 km/h (2 Bft) 97,83 %
04.10.2020 16:22 14,1 C 13,3 C 12,2 C 74 % 996,1 hPa 0,0 l/m 0 min 0 min 75 W/m 25,7 km/h (4 Bft) 97,87 %
04.10.2020 16:24 14,1 C 13,3 C 12,2 C 74 % 996,1 hPa 0,0 l/m 0 min 0 min 93 W/m 16,1 km/h (3 Bft) 97,87 %
04.10.2020 16:26 14,0 C 13,3 C 12,2 C 74 % 996,2 hPa 0,0 l/m 0 min 0 min 87 W/m 22,5 km/h (4 Bft) 97,87 %
04.10.2020 16:28 14,0 C 13,3 C 12,2 C 75 % 996,2 hPa 0,0 l/m 0 min 0 min 69 W/m 16,1 km/h (3 Bft) 100,00 %
04.10.2020 16:30 14,0 C 13,3 C 12,2 C 75 % 996,2 hPa 0,0 l/m 0 min 0 min 52 W/m 25,7 km/h (4 Bft) 100,00 %
04.10.2020 16:32 14,0 C 13,3 C 12,2 C 75 % 996,3 hPa 0,0 l/m 0 min 0 min 52 W/m 19,3 km/h (3 Bft) 97,83 %
04.10.2020 16:34 14,0 C 13,3 C 12,2 C 75 % 996,3 hPa 0,0 l/m 0 min 0 min 57 W/m 12,9 km/h (3 Bft) 97,87 %
04.10.2020 16:36 14,0 C 13,3 C 12,2 C 75 % 996,3 hPa 0,0 l/m 0 min 0 min 65 W/m 16,1 km/h (3 Bft) 95,74 %
04.10.2020 16:38 13,9 C 13,3 C 12,2 C 75 % 996,3 hPa 0,0 l/m 0 min 0 min 50 W/m 16,1 km/h (3 Bft) 97,87 %
04.10.2020 16:40 13,9 C 13,3 C 12,2 C 75 % 996,3 hPa 0,0 l/m 0 min 0 min 46 W/m 12,9 km/h (3 Bft) 97,87 %
04.10.2020 16:42 13,9 C 13,3 C 12,2 C 75 % 996,3 hPa 0,0 l/m 0 min 0 min 48 W/m 16,1 km/h (3 Bft) 97,87 %
04.10.2020 16:44 13,9 C 13,3 C 12,2 C 75 % 996,3 hPa 0,0 l/m 0 min 0 min 45 W/m 9,7 km/h (2 Bft) 95,65 %
04.10.2020 16:46 13,9 C 13,3 C 12,2 C 76 % 996,3 hPa 0,0 l/m 0 min 0 min 47 W/m 3,2 km/h (1 Bft) 100,00 %
04.10.2020 16:48 14,0 C 13,3 C 12,2 C 75 % 996,3 hPa 0,0 l/m 0 min 0 min 40 W/m 0,0 km/h (0 Bft) 95,74 %
04.10.2020 16:50 14,0 C 13,3 C 12,2 C 76 % 996,2 hPa 0,0 l/m 0 min 0 min 39 W/m 0,0 km/h (0 Bft) 97,87 %
04.10.2020 16:52 13,9 C 13,3 C 12,2 C 76 % 996,4 hPa 0,0 l/m 0 min 0 min 33 W/m 16,1 km/h (3 Bft) 97,87 %
04.10.2020 16:54 14,0 C 13,3 C 12,2 C 76 % 996,3 hPa 0,0 l/m 0 min 0 min 52 W/m 16,1 km/h (3 Bft) 97,87 %
04.10.2020 16:56 14,0 C 12,8 C 12,2 C 76 % 996,4 hPa 0,0 l/m 0 min 2 min 55 W/m 16,1 km/h (3 Bft) 97,83 %
04.10.2020 16:58 14,0 C 12,2 C 11,7 C 77 % 996,2 hPa 0,0 l/m 0 min 2 min 63 W/m 6,4 km/h (2 Bft) 97,87 %
04.10.2020 17:00 14,1 C 12,2 C 11,7 C 77 % 996,2 hPa 0,0 l/m 0 min 2 min 72 W/m 16,1 km/h (3 Bft) 91,49 %
04.10.2020 17:02 14,0 C 11,7 C 11,7 C 78 % 996,2 hPa 0,0 l/m 0 min 2 min 68 W/m 29,0 km/h (5 Bft) 97,87 %
04.10.2020 17:04 14,0 C 12,2 C 11,7 C 78 % 996,1 hPa 0,0 l/m 0 min 0 min 50 W/m 16,1 km/h (3 Bft) 97,87 %
04.10.2020 17:06 14,0 C 12,2 C 11,7 C 78 % 996,3 hPa 0,0 l/m 0 min 0 min 34 W/m 9,7 km/h (2 Bft) 95,74 %
04.10.2020 17:08 14,0 C 12,2 C 11,1 C 79 % 996,3 hPa 0,0 l/m 0 min 0 min 31 W/m 12,9 km/h (3 Bft) 97,83 %
04.10.2020 17:10 13,9 C 11,7 C 11,1 C 79 % 996,2 hPa 0,0 l/m 0 min 2 min 26 W/m 12,9 km/h (3 Bft) 97,87 %
04.10.2020 17:12 13,9 C 11,1 C 11,1 C 79 % 996,4 hPa 0,0 l/m 0 min 2 min 46 W/m 16,1 km/h (3 Bft) 95,74 %
04.10.2020 17:14 13,9 C 11,1 C 11,1 C 79 % 996,4 hPa 0,0 l/m 0 min 2 min 107 W/m 12,9 km/h (3 Bft) 97,87 %
04.10.2020 17:16 13,9 C 11,1 C 11,1 C 80 % 996,3 hPa 0,2 l/m 0 min 2 min 115 W/m 6,4 km/h (2 Bft) 97,87 %
04.10.2020 17:18 13,9 C 11,1 C 11,1 C 81 % 996,3 hPa 0,0 l/m 2 min 2 min 180 W/m 12,9 km/h (3 Bft) 100,00 %
04.10.2020 17:20 13,9 C 10,6 C 10,6 C 82 % 996,4 hPa 0,0 l/m 2 min 2 min 131 W/m 16,1 km/h (3 Bft) 97,83 %
04.10.2020 17:22 13,9 C 10,6 C 10,6 C 82 % 996,3 hPa 0,2 l/m 0 min 2 min 75 W/m 19,3 km/h (3 Bft) 100,00 %
04.10.2020 17:24 13,8 C 10,6 C 10,6 C 82 % 996,3 hPa 0,0 l/m 0 min 2 min 50 W/m 19,3 km/h (3 Bft) 97,87 %
04.10.2020 17:26 13,7 C 10,6 C 10,6 C 83 % 996,2 hPa 0,0 l/m 0 min 2 min 41 W/m 19,3 km/h (3 Bft) 100,00 %
04.10.2020 17:28 13,7 C 10,6 C 10,6 C 83 % 996,3 hPa 0,0 l/m 0 min 0 min 37 W/m 16,1 km/h (3 Bft) 100,00 %
04.10.2020 17:30 13,6 C 10,6 C 10,6 C 83 % 996,3 hPa 0,0 l/m 0 min 0 min 36 W/m 6,4 km/h (2 Bft) 100,00 %
04.10.2020 17:32 13,6 C 10,6 C 10,6 C 83 % 996,2 hPa 0,0 l/m 0 min 0 min 37 W/m 16,1 km/h (3 Bft) 100,00 %
04.10.2020 17:34 13,5 C 10,6 C 10,6 C 83 % 996,2 hPa 0,0 l/m 0 min 0 min 40 W/m 12,9 km/h (3 Bft) 100,00 %
04.10.2020 17:36 13,4 C 10,6 C 10,6 C 84 % 996,2 hPa 0,0 l/m 0 min 0 min 43 W/m 12,9 km/h (3 Bft) 100,00 %
04.10.2020 17:38 13,3 C 10,6 C 10,6 C 84 % 996,2 hPa 0,0 l/m 0 min 0 min 41 W/m 12,9 km/h (3 Bft) 100,00 %
04.10.2020 17:40 13,3 C 10,6 C 10,6 C 84 % 996,3 hPa 0,0 l/m 0 min 0 min 47 W/m 19,3 km/h (3 Bft) 97,87 %
04.10.2020 17:42 13,3 C 11,1 C 10,6 C 84 % 996,3 hPa 0,0 l/m 0 min 0 min 43 W/m 16,1 km/h (3 Bft) 100,00 %
04.10.2020 17:44 13,2 C 11,1 C 10,6 C 84 % 996,2 hPa 0,0 l/m 0 min 0 min 51 W/m 16,1 km/h (3 Bft) 100,00 %
04.10.2020 17:46 13,1 C 11,1 C 10,6 C 85 % 996,1 hPa 0,0 l/m 0 min 0 min 62 W/m 12,9 km/h (3 Bft) 100,00 %
04.10.2020 17:48 13,1 C 11,1 C 10,6 C 85 % 996,2 hPa 0,0 l/m 0 min 0 min 72 W/m 12,9 km/h (3 Bft) 100,00 %
04.10.2020 17:50 13,1 C 11,7 C 10,6 C 85 % 996,2 hPa 0,0 l/m 0 min 0 min 70 W/m 22,5 km/h (4 Bft) 100,00 %
04.10.2020 17:52 13,0 C 11,7 C 10,6 C 85 % 996,3 hPa 0,0 l/m 0 min 0 min 65 W/m 16,1 km/h (3 Bft) 100,00 %
04.10.2020 17:54 13,0 C 11,1 C 10,6 C 85 % 996,2 hPa 0,0 l/m 0 min 0 min 64 W/m 16,1 km/h (3 Bft) 97,83 %
04.10.2020 17:56 13,0 C 11,7 C 10,6 C 85 % 996,2 hPa 0,0 l/m 0 min 0 min 69 W/m 12,9 km/h (3 Bft) 97,87 %
04.10.2020 17:58 12,9 C 11,7 C 10,6 C 85 % 996,2 hPa 0,0 l/m 0 min 0 min 72 W/m 25,7 km/h (4 Bft) 95,74 %
04.10.2020 18:00 12,9 C 11,7 C 10,6 C 85 % 996,2 hPa 0,0 l/m 0 min 0 min 70 W/m 25,7 km/h (4 Bft) 93,62 %
04.10.2020 18:02 12,9 C 11,7 C 10,6 C 85 % 996,2 hPa 0,0 l/m 0 min 0 min 61 W/m 16,1 km/h (3 Bft) 97,87 %
04.10.2020 18:04 12,9 C 11,7 C 10,6 C 85 % 996,2 hPa 0,0 l/m 0 min 0 min 50 W/m 29,0 km/h (5 Bft) 100,00 %
04.10.2020 18:08 12,9 C 11,1 C 10,6 C 85 % 996,2 hPa 0,0 l/m 0 min 0 min 40 W/m 16,1 km/h (3 Bft) 98,94 %
04.10.2020 18:10 12,9 C 11,1 C 10,6 C 85 % 996,2 hPa 0,0 l/m 0 min 0 min 34 W/m 16,1 km/h (3 Bft) 97,83 %
04.10.2020 18:12 12,9 C 11,1 C 10,6 C 85 % 996,3 hPa 0,0 l/m 0 min 0 min 29 W/m 22,5 km/h (4 Bft) 97,87 %
04.10.2020 18:14 12,9 C 11,1 C 10,6 C 85 % 996,2 hPa 0,0 l/m 0 min 0 min 26 W/m 16,1 km/h (3 Bft) 97,87 %
04.10.2020 18:16 12,9 C 11,1 C 10,6 C 85 % 996,3 hPa 0,0 l/m 0 min 0 min 28 W/m 16,1 km/h (3 Bft) 97,87 %
04.10.2020 18:18 12,9 C 11,1 C 10,6 C 85 % 996,3 hPa 0,0 l/m 0 min 0 min 26 W/m 16,1 km/h (3 Bft) 97,87 %
04.10.2020 18:20 12,9 C 11,1 C 10,6 C 85 % 996,3 hPa 0,0 l/m 0 min 0 min 23 W/m 22,5 km/h (4 Bft) 95,65 %
04.10.2020 18:22 12,8 C 11,1 C 10,6 C 85 % 996,3 hPa 0,0 l/m 0 min 0 min 20 W/m 22,5 km/h (4 Bft) 95,74 %
04.10.2020 18:24 12,8 C 11,1 C 10,6 C 85 % 996,4 hPa 0,0 l/m 0 min 0 min 17 W/m 16,1 km/h (3 Bft) 95,74 %
04.10.2020 18:26 12,8 C 11,1 C 10,6 C 85 % 996,3 hPa 0,0 l/m 0 min 0 min 17 W/m 3,2 km/h (1 Bft) 97,87 %
04.10.2020 18:28 12,8 C 11,1 C 10,6 C 85 % 996,4 hPa 0,0 l/m 0 min 0 min 14 W/m 16,1 km/h (3 Bft) 95,74 %
04.10.2020 18:30 12,8 C 11,1 C 10,6 C 85 % 996,4 hPa 0,0 l/m 0 min 0 min 16 W/m 19,3 km/h (3 Bft) 97,87 %
04.10.2020 18:32 12,8 C 11,1 C 11,1 C 85 % 996,4 hPa 0,0 l/m 0 min 0 min 16 W/m 25,7 km/h (4 Bft) 97,83 %
04.10.2020 18:34 12,8 C 11,1 C 11,1 C 84 % 996,4 hPa 0,0 l/m 0 min 0 min 15 W/m 16,1 km/h (3 Bft) 97,87 %
04.10.2020 18:36 12,8 C 11,1 C 11,1 C 84 % 996,4 hPa 0,0 l/m 0 min 0 min 17 W/m 19,3 km/h (3 Bft) 97,87 %
04.10.2020 18:38 12,8 C 11,7 C 11,1 C 84 % 996,5 hPa 0,0 l/m 0 min 0 min 16 W/m 16,1 km/h (3 Bft) 95,74 %
04.10.2020 18:40 12,8 C 11,7 C 11,1 C 84 % 996,4 hPa 0,0 l/m 0 min 0 min 21 W/m 16,1 km/h (3 Bft) 95,74 %
04.10.2020 18:42 12,8 C 11,7 C 11,1 C 84 % 996,5 hPa 0,0 l/m 2 min 0 min 24 W/m 16,1 km/h (3 Bft) 95,74 %
04.10.2020 18:44 12,8 C 11,7 C 11,1 C 84 % 996,5 hPa 0,0 l/m 2 min 0 min 21 W/m 29,0 km/h (5 Bft) 95,65 %
04.10.2020 18:46 12,8 C 11,7 C 11,1 C 84 % 996,4 hPa 0,0 l/m 0 min 0 min 18 W/m 22,5 km/h (4 Bft) 93,62 %
04.10.2020 18:48 12,8 C 11,7 C 11,1 C 84 % 996,4 hPa 0,0 l/m 0 min 0 min 16 W/m 19,3 km/h (3 Bft) 95,74 %
04.10.2020 18:50 12,8 C 11,7 C 11,1 C 84 % 996,4 hPa 0,0 l/m 0 min 0 min 12 W/m 19,3 km/h (3 Bft) 97,87 %
04.10.2020 18:52 12,8 C 12,2 C 11,1 C 84 % 996,4 hPa 0,0 l/m 0 min 0 min 12 W/m 22,5 km/h (4 Bft) 95,74 %
04.10.2020 18:54 12,8 C 12,2 C 11,1 C 83 % 996,3 hPa 0,0 l/m 0 min 0 min 11 W/m 12,9 km/h (3 Bft) 97,87 %
04.10.2020 18:56 12,9 C 12,2 C 11,1 C 83 % 996,4 hPa 0,0 l/m 0 min 0 min 10 W/m 22,5 km/h (4 Bft) 95,65 %
04.10.2020 18:58 12,9 C 11,7 C 11,1 C 83 % 996,4 hPa 0,0 l/m 0 min 0 min 9 W/m 32,2 km/h (5 Bft) 97,87 %
04.10.2020 19:00 12,9 C 11,7 C 11,1 C 83 % 996,5 hPa 0,0 l/m 0 min 0 min 7 W/m 19,3 km/h (3 Bft) 97,87 %
04.10.2020 19:02 12,9 C 11,7 C 11,1 C 83 % 996,5 hPa 0,0 l/m 0 min 0 min 5 W/m 25,7 km/h (4 Bft) 97,87 %
04.10.2020 19:04 12,9 C 11,7 C 11,1 C 83 % 996,5 hPa 0,0 l/m 0 min 0 min 2 W/m 16,1 km/h (3 Bft) 97,87 %
04.10.2020 19:06 12,8 C 11,7 C 10,6 C 83 % 996,5 hPa 0,0 l/m 0 min 0 min 0 W/m 29,0 km/h (5 Bft) 97,87 %
04.10.2020 19:08 12,8 C 11,7 C 10,6 C 83 % 996,6 hPa 0,0 l/m 0 min 0 min 0 W/m 19,3 km/h (3 Bft) 95,65 %
04.10.2020 19:10 12,8 C 11,7 C 10,6 C 83 % 996,6 hPa 0,0 l/m 0 min 0 min 0 W/m 19,3 km/h (3 Bft) 95,74 %
04.10.2020 19:12 12,8 C 11,7 C 10,6 C 82 % 996,6 hPa 0,0 l/m 0 min 0 min 0 W/m 29,0 km/h (5 Bft) 97,87 %
04.10.2020 19:14 12,8 C 11,7 C 10,6 C 82 % 996,6 hPa 0,0 l/m 0 min 0 min 0 W/m 22,5 km/h (4 Bft) 97,87 %
04.10.2020 19:16 12,8 C 11,7 C 10,6 C 82 % 996,6 hPa 0,0 l/m 0 min 0 min 0 W/m 29,0 km/h (5 Bft) 97,87 %
04.10.2020 19:18 12,7 C 11,7 C 10,6 C 83 % 996,7 hPa 0,0 l/m 0 min 0 min 0 W/m 16,1 km/h (3 Bft) 97,83 %
04.10.2020 19:20 12,7 C 11,7 C 10,6 C 83 % 996,7 hPa 0,0 l/m 0 min 0 min 0 W/m 6,4 km/h (2 Bft) 97,87 %
04.10.2020 19:22 12,7 C 11,1 C 10,6 C 83 % 996,8 hPa 0,0 l/m 0 min 0 min 0 W/m 16,1 km/h (3 Bft) 97,87 %
04.10.2020 19:24 12,7 C 11,1 C 10,6 C 83 % 996,7 hPa 0,0 l/m 0 min 0 min 0 W/m 6,4 km/h (2 Bft) 97,87 %
04.10.2020 19:26 12,6 C 11,1 C 10,6 C 83 % 996,8 hPa 0,0 l/m 0 min 0 min 0 W/m 25,7 km/h (4 Bft) 97,87 %
04.10.2020 19:28 12,6 C 11,1 C 10,6 C 83 % 996,8 hPa 0,0 l/m 0 min 0 min 0 W/m 19,3 km/h (3 Bft) 95,74 %
04.10.2020 19:30 12,6 C 11,1 C 10,6 C 83 % 996,8 hPa 0,0 l/m 0 min 0 min 0 W/m 19,3 km/h (3 Bft) 100,00 %
04.10.2020 19:32 12,5 C 11,1 C 10,6 C 83 % 996,8 hPa 0,0 l/m 0 min 0 min 0 W/m 19,3 km/h (3 Bft) 100,00 %
04.10.2020 19:34 12,4 C 11,1 C 10,6 C 83 % 996,9 hPa 0,0 l/m 0 min 0 min 0 W/m 19,3 km/h (3 Bft) 97,87 %
04.10.2020 19:36 12,4 C 11,1 C 10,6 C 83 % 996,9 hPa 0,0 l/m 0 min 0 min 0 W/m 19,3 km/h (3 Bft) 100,00 %
04.10.2020 19:38 12,4 C 11,1 C 10,6 C 84 % 996,9 hPa 0,0 l/m 0 min 0 min 0 W/m 16,1 km/h (3 Bft) 100,00 %
04.10.2020 19:40 12,3 C 11,1 C 10,6 C 84 % 997,0 hPa 0,0 l/m 0 min 0 min 0 W/m 25,7 km/h (4 Bft) 97,87 %
04.10.2020 19:42 12,3 C 11,1 C 10,6 C 84 % 997,0 hPa 0,0 l/m 0 min 0 min 0 W/m 16,1 km/h (3 Bft) 97,83 %
04.10.2020 19:44 12,3 C 11,1 C 10,6 C 84 % 997,0 hPa 0,0 l/m 0 min 0 min 0 W/m 19,3 km/h (3 Bft) 95,74 %
04.10.2020 19:46 12,3 C 11,1 C 10,6 C 84 % 997,0 hPa 0,0 l/m 0 min 0 min 0 W/m 19,3 km/h (3 Bft) 97,87 %
04.10.2020 19:48 12,2 C 11,1 C 10,6 C 84 % 997,1 hPa 0,0 l/m 0 min 0 min 0 W/m 19,3 km/h (3 Bft) 97,87 %
04.10.2020 19:50 12,2 C 11,1 C 10,6 C 84 % 997,0 hPa 0,0 l/m 0 min 0 min 0 W/m 16,1 km/h (3 Bft) 97,87 %
04.10.2020 19:52 12,2 C 11,1 C 10,6 C 84 % 997,0 hPa 0,0 l/m 0 min 0 min 0 W/m 6,4 km/h (2 Bft) 97,87 %
04.10.2020 19:54 12,2 C 11,1 C 10,6 C 84 % 997,0 hPa 0,0 l/m 0 min 0 min 0 W/m 0,0 km/h (0 Bft) 97,83 %
04.10.2020 19:56 12,1 C 11,1 C 10,6 C 84 % 997,0 hPa 0,0 l/m 0 min 0 min 0 W/m 16,1 km/h (3 Bft) 97,87 %
04.10.2020 19:58 12,1 C 11,1 C 10,6 C 84 % 997,0 hPa 0,0 l/m 0 min 0 min 0 W/m 16,1 km/h (3 Bft) 97,87 %
04.10.2020 20:00 12,1 C 11,1 C 10,6 C 85 % 997,0 hPa 0,0 l/m 0 min 0 min 0 W/m 6,4 km/h (2 Bft) 97,87 %
04.10.2020 20:02 12,1 C 11,1 C 10,6 C 85 % 997,0 hPa 0,0 l/m 0 min 0 min 0 W/m 12,9 km/h (3 Bft) 97,87 %
04.10.2020 20:04 12,1 C 11,1 C 10,6 C 85 % 997,0 hPa 0,0 l/m 0 min 0 min 0 W/m 16,1 km/h (3 Bft) 97,87 %
04.10.2020 20:06 12,1 C 11,1 C 10,6 C 85 % 997,0 hPa 0,0 l/m 0 min 0 min 0 W/m 16,1 km/h (3 Bft) 97,83 %
04.10.2020 20:08 12,1 C 11,7 C 10,6 C 85 % 997,0 hPa 0,0 l/m 0 min 0 min 0 W/m 19,3 km/h (3 Bft) 97,87 %
04.10.2020 20:10 12,1 C 11,7 C 10,6 C 85 % 997,0 hPa 0,0 l/m 0 min 0 min 0 W/m 19,3 km/h (3 Bft) 97,87 %
04.10.2020 20:12 12,1 C 11,7 C 10,6 C 85 % 997,0 hPa 0,0 l/m 0 min 0 min 0 W/m 22,5 km/h (4 Bft) 97,87 %
04.10.2020 20:14 12,1 C 11,7 C 10,6 C 85 % 997,0 hPa 0,0 l/m 0 min 0 min 0 W/m 16,1 km/h (3 Bft) 95,74 %
04.10.2020 20:16 12,1 C 11,7 C 10,6 C 85 % 997,0 hPa 0,0 l/m 0 min 0 min 0 W/m 19,3 km/h (3 Bft) 97,87 %
04.10.2020 20:18 12,1 C 11,7 C 10,6 C 84 % 997,0 hPa 0,0 l/m 0 min 0 min 0 W/m 25,7 km/h (4 Bft) 97,83 %
04.10.2020 20:20 12,1 C 11,7 C 10,6 C 84 % 997,0 hPa 0,0 l/m 0 min 0 min 0 W/m 19,3 km/h (3 Bft) 97,87 %
04.10.2020 20:22 12,1 C 11,7 C 10,6 C 84 % 997,0 hPa 0,0 l/m 0 min 0 min 0 W/m 22,5 km/h (4 Bft) 97,87 %
04.10.2020 20:24 12,2 C 11,7 C 10,6 C 84 % 996,9 hPa 0,0 l/m 0 min 0 min 0 W/m 22,5 km/h (4 Bft) 95,74 %
04.10.2020 20:26 12,2 C 11,7 C 10,6 C 84 % 996,9 hPa 0,0 l/m 0 min 0 min 0 W/m 19,3 km/h (3 Bft) 97,87 %
04.10.2020 20:28 12,2 C 11,7 C 10,6 C 84 % 997,0 hPa 0,0 l/m 0 min 0 min 0 W/m 25,7 km/h (4 Bft) 97,87 %
04.10.2020 20:30 12,2 C 11,7 C 10,6 C 84 % 996,9 hPa 0,0 l/m 0 min 0 min 0 W/m 22,5 km/h (4 Bft) 97,83 %
04.10.2020 20:32 12,2 C 11,7 C 10,6 C 84 % 996,9 hPa 0,0 l/m 0 min 0 min 0 W/m 22,5 km/h (4 Bft) 97,87 %
04.10.2020 20:34 12,2 C 11,7 C 10,6 C 84 % 996,9 hPa 0,0 l/m 0 min 0 min 0 W/m 19,3 km/h (3 Bft) 95,74 %
04.10.2020 20:36 12,2 C 11,7 C 10,6 C 84 % 997,0 hPa 0,0 l/m 0 min 0 min 0 W/m 22,5 km/h (4 Bft) 97,87 %
04.10.2020 20:38 12,2 C 11,7 C 10,6 C 84 % 997,0 hPa 0,0 l/m 0 min 0 min 0 W/m 19,3 km/h (3 Bft) 97,87 %
04.10.2020 20:40 12,2 C 11,7 C 10,6 C 84 % 997,0 hPa 0,0 l/m 0 min 0 min 0 W/m 22,5 km/h (4 Bft) 97,83 %
04.10.2020 20:42 12,2 C 11,7 C 10,6 C 84 % 997,1 hPa 0,0 l/m 0 min 0 min 0 W/m 25,7 km/h (4 Bft) 97,87 %
04.10.2020 20:44 12,3 C 11,7 C 10,6 C 84 % 997,0 hPa 0,0 l/m 0 min 0 min 0 W/m 22,5 km/h (4 Bft) 95,74 %
04.10.2020 20:46 12,3 C 11,7 C 10,6 C 84 % 997,0 hPa 0,0 l/m 0 min 0 min 0 W/m 16,1 km/h (3 Bft) 97,87 %
04.10.2020 20:48 12,3 C 11,7 C 10,6 C 84 % 997,0 hPa 0,0 l/m 0 min 0 min 0 W/m 19,3 km/h (3 Bft) 97,87 %
04.10.2020 20:50 12,3 C 11,7 C 10,6 C 84 % 997,0 hPa 0,0 l/m 0 min 0 min 0 W/m 25,7 km/h (4 Bft) 93,62 %
04.10.2020 20:52 12,3 C 11,7 C 10,6 C 85 % 997,0 hPa 0,0 l/m 0 min 0 min 0 W/m 22,5 km/h (4 Bft) 97,83 %
04.10.2020 20:54 12,3 C 11,7 C 10,6 C 85 % 997,0 hPa 0,0 l/m 0 min 0 min 0 W/m 22,5 km/h (4 Bft) 97,87 %
04.10.2020 20:56 12,3 C 11,7 C 10,6 C 85 % 997,1 hPa 0,0 l/m 0 min 0 min 0 W/m 22,5 km/h (4 Bft) 97,87 %
04.10.2020 20:58 12,3 C 11,1 C 10,6 C 85 % 997,1 hPa 0,0 l/m 0 min 0 min 0 W/m 19,3 km/h (3 Bft) 97,87 %
04.10.2020 21:00 12,2 C 11,1 C 10,6 C 85 % 997,1 hPa 0,0 l/m 0 min 0 min 0 W/m 19,3 km/h (3 Bft) 97,87 %
04.10.2020 21:02 12,2 C 11,1 C 10,6 C 85 % 997,1 hPa 0,0 l/m 0 min 0 min 0 W/m 19,3 km/h (3 Bft) 97,87 %
04.10.2020 21:04 12,2 C 11,1 C 10,6 C 85 % 997,1 hPa 0,0 l/m 0 min 0 min 0 W/m 25,7 km/h (4 Bft) 97,83 %
04.10.2020 21:06 12,2 C 11,1 C 10,6 C 85 % 997,1 hPa 0,0 l/m 0 min 0 min 0 W/m 19,3 km/h (3 Bft) 97,87 %
04.10.2020 21:08 12,2 C 11,1 C 10,6 C 85 % 997,1 hPa 0,0 l/m 0 min 0 min 0 W/m 35,4 km/h (5 Bft) 95,74 %
04.10.2020 21:10 12,2 C 11,1 C 10,6 C 85 % 997,2 hPa 0,0 l/m 0 min 0 min 0 W/m 22,5 km/h (4 Bft) 97,87 %
04.10.2020 21:12 12,2 C 11,1 C 10,6 C 85 % 997,2 hPa 0,0 l/m 0 min 0 min 0 W/m 6,4 km/h (2 Bft) 97,87 %
04.10.2020 21:14 12,1 C 11,1 C 10,6 C 85 % 997,3 hPa 0,0 l/m 0 min 0 min 0 W/m 25,7 km/h (4 Bft) 95,74 %
04.10.2020 21:16 12,1 C 11,1 C 10,6 C 85 % 997,3 hPa 0,0 l/m 0 min 0 min 0 W/m 16,1 km/h (3 Bft) 97,83 %
04.10.2020 21:18 12,1 C 11,1 C 10,6 C 85 % 997,3 hPa 0,0 l/m 0 min 0 min 0 W/m 12,9 km/h (3 Bft) 97,87 %
04.10.2020 21:20 12,1 C 11,1 C 10,6 C 85 % 997,3 hPa 0,0 l/m 0 min 0 min 0 W/m 22,5 km/h (4 Bft) 97,87 %
04.10.2020 21:22 12,1 C 11,1 C 10,6 C 85 % 997,3 hPa 0,0 l/m 0 min 0 min 0 W/m 12,9 km/h (3 Bft) 100,00 %
04.10.2020 21:24 12,1 C 11,1 C 10,6 C 85 % 997,2 hPa 0,0 l/m 0 min 0 min 0 W/m 29,0 km/h (5 Bft) 100,00 %
04.10.2020 21:26 12,0 C 11,1 C 10,6 C 85 % 997,3 hPa 0,0 l/m 0 min 0 min 0 W/m 19,3 km/h (3 Bft) 100,00 %
04.10.2020 21:28 12,0 C 10,6 C 10,6 C 84 % 997,3 hPa 0,0 l/m 0 min 0 min 0 W/m 12,9 km/h (3 Bft) 97,87 %
04.10.2020 21:30 11,9 C 10,6 C 10,6 C 84 % 997,4 hPa 0,0 l/m 0 min 0 min 0 W/m 16,1 km/h (3 Bft) 100,00 %
04.10.2020 21:32 11,9 C 10,6 C 10,0 C 85 % 997,4 hPa 0,0 l/m 0 min 0 min 0 W/m 22,5 km/h (4 Bft) 100,00 %
04.10.2020 21:34 11,9 C 10,6 C 10,0 C 85 % 997,4 hPa 0,0 l/m 0 min 0 min 0 W/m 16,1 km/h (3 Bft) 100,00 %
04.10.2020 21:36 11,9 C 10,6 C 10,0 C 85 % 997,4 hPa 0,0 l/m 0 min 0 min 0 W/m 16,1 km/h (3 Bft) 97,87 %
04.10.2020 21:38 11,8 C 10,6 C 10,0 C 85 % 997,5 hPa 0,0 l/m 0 min 0 min 0 W/m 25,7 km/h (4 Bft) 95,65 %
04.10.2020 21:40 11,8 C 10,6 C 10,0 C 85 % 997,4 hPa 0,0 l/m 0 min 0 min 0 W/m 16,1 km/h (3 Bft) 97,87 %
04.10.2020 21:42 11,8 C 10,6 C 10,0 C 85 % 997,4 hPa 0,0 l/m 0 min 0 min 0 W/m 16,1 km/h (3 Bft) 97,87 %
04.10.2020 21:44 11,8 C 10,6 C 10,0 C 86 % 997,4 hPa 0,0 l/m 0 min 0 min 0 W/m 16,1 km/h (3 Bft) 97,87 %
04.10.2020 21:46 11,7 C 10,6 C 10,0 C 86 % 997,5 hPa 0,0 l/m 0 min 0 min 0 W/m 19,3 km/h (3 Bft) 95,74 %
04.10.2020 21:48 11,7 C 10,6 C 10,0 C 86 % 997,5 hPa 0,0 l/m 0 min 0 min 0 W/m 22,5 km/h (4 Bft) 97,87 %
04.10.2020 21:50 11,7 C 10,6 C 10,0 C 86 % 997,5 hPa 0,0 l/m 0 min 0 min 0 W/m 19,3 km/h (3 Bft) 97,83 %
04.10.2020 21:52 11,7 C 10,6 C 10,0 C 86 % 997,5 hPa 0,0 l/m 0 min 0 min 0 W/m 16,1 km/h (3 Bft) 97,87 %
04.10.2020 21:54 11,6 C 10,0 C 10,0 C 86 % 997,5 hPa 0,0 l/m 0 min 0 min 0 W/m 19,3 km/h (3 Bft) 97,87 %
04.10.2020 21:56 11,6 C 10,0 C 10,0 C 86 % 997,5 hPa 0,0 l/m 0 min 0 min 0 W/m 16,1 km/h (3 Bft) 97,87 %
04.10.2020 21:58 11,6 C 10,0 C 10,0 C 87 % 997,6 hPa 0,0 l/m 0 min 0 min 0 W/m 29,0 km/h (5 Bft) 97,87 %
04.10.2020 22:00 11,5 C 10,0 C 10,0 C 87 % 997,5 hPa 0,0 l/m 0 min 0 min 0 W/m 19,3 km/h (3 Bft) 97,87 %
04.10.2020 22:02 11,4 C 10,0 C 10,0 C 87 % 997,5 hPa 0,0 l/m 0 min 0 min 0 W/m 25,7 km/h (4 Bft) 97,83 %
04.10.2020 22:04 11,4 C 10,0 C 10,0 C 87 % 997,6 hPa 0,0 l/m 0 min 0 min 0 W/m 22,5 km/h (4 Bft) 93,62 %
04.10.2020 22:06 11,4 C 10,0 C 10,0 C 87 % 997,6 hPa 0,0 l/m 0 min 0 min 0 W/m 19,3 km/h (3 Bft) 97,87 %
04.10.2020 22:08 11,3 C 10,0 C 10,0 C 87 % 997,7 hPa 0,0 l/m 0 min 0 min 0 W/m 16,1 km/h (3 Bft) 97,87 %
04.10.2020 22:10 11,3 C 10,0 C 10,0 C 87 % 997,7 hPa 0,0 l/m 0 min 0 min 0 W/m 22,5 km/h (4 Bft) 97,87 %
04.10.2020 22:12 11,3 C 10,0 C 9,4 C 87 % 997,6 hPa 0,0 l/m 0 min 0 min 0 W/m 16,1 km/h (3 Bft) 97,87 %
04.10.2020 22:14 11,3 C 10,0 C 10,0 C 88 % 997,6 hPa 0,0 l/m 0 min 0 min 0 W/m 25,7 km/h (4 Bft) 97,83 %
04.10.2020 22:16 11,2 C 10,0 C 9,4 C 88 % 997,6 hPa 0,0 l/m 0 min 0 min 0 W/m 22,5 km/h (4 Bft) 100,00 %
04.10.2020 22:18 11,2 C 10,0 C 9,4 C 88 % 997,6 hPa 0,0 l/m 0 min 0 min 0 W/m 12,9 km/h (3 Bft) 97,87 %
04.10.2020 22:20 11,2 C 10,0 C 9,4 C 88 % 997,6 hPa 0,0 l/m 0 min 0 min 0 W/m 25,7 km/h (4 Bft) 93,62 %
04.10.2020 22:22 11,2 C 10,0 C 9,4 C 88 % 997,6 hPa 0,0 l/m 0 min 0 min 0 W/m 22,5 km/h (4 Bft) 97,87 %
04.10.2020 22:24 11,1 C 10,0 C 9,4 C 88 % 997,6 hPa 0,0 l/m 0 min 0 min 0 W/m 19,3 km/h (3 Bft) 97,83 %
04.10.2020 22:26 11,1 C 10,0 C 9,4 C 89 % 997,6 hPa 0,0 l/m 0 min 0 min 0 W/m 12,9 km/h (3 Bft) 100,00 %
04.10.2020 22:28 11,1 C 10,0 C 9,4 C 89 % 997,6 hPa 0,0 l/m 0 min 0 min 0 W/m 12,9 km/h (3 Bft) 97,87 %
04.10.2020 22:30 11,1 C 10,0 C 9,4 C 89 % 997,6 hPa 0,0 l/m 0 min 0 min 0 W/m 12,9 km/h (3 Bft) 100,00 %
04.10.2020 22:32 11,1 C 10,0 C 9,4 C 89 % 997,6 hPa 0,0 l/m 0 min 0 min 0 W/m 16,1 km/h (3 Bft) 100,00 %
04.10.2020 22:34 11,1 C 10,0 C 9,4 C 89 % 997,6 hPa 0,0 l/m 0 min 0 min 0 W/m 16,1 km/h (3 Bft) 97,87 %
04.10.2020 22:36 11,0 C 10,0 C 9,4 C 89 % 997,7 hPa 0,0 l/m 0 min 0 min 0 W/m 22,5 km/h (4 Bft) 100,00 %
04.10.2020 22:38 11,0 C 10,0 C 9,4 C 89 % 997,7 hPa 0,0 l/m 0 min 0 min 0 W/m 19,3 km/h (3 Bft) 100,00 %
04.10.2020 22:40 10,9 C 9,4 C 9,4 C 89 % 997,7 hPa 0,0 l/m 0 min 0 min 0 W/m 3,2 km/h (1 Bft) 100,00 %
04.10.2020 22:42 10,9 C 9,4 C 9,4 C 90 % 997,8 hPa 0,0 l/m 0 min 0 min 0 W/m 3,2 km/h (1 Bft) 97,87 %
04.10.2020 22:44 10,9 C 9,4 C 9,4 C 90 % 997,8 hPa 0,0 l/m 0 min 0 min 0 W/m 12,9 km/h (3 Bft) 97,87 %
04.10.2020 22:46 10,9 C 9,4 C 9,4 C 90 % 997,8 hPa 0,0 l/m 0 min 0 min 0 W/m 16,1 km/h (3 Bft) 100,00 %
04.10.2020 22:48 10,9 C 9,4 C 9,4 C 90 % 997,8 hPa 0,0 l/m 0 min 0 min 0 W/m 0,0 km/h (0 Bft) 100,00 %
04.10.2020 22:50 10,8 C 9,4 C 9,4 C 90 % 997,8 hPa 0,0 l/m 0 min 0 min 0 W/m 12,9 km/h (3 Bft) 100,00 %
04.10.2020 22:52 10,8 C 9,4 C 9,4 C 90 % 997,9 hPa 0,0 l/m 0 min 0 min 0 W/m 0,0 km/h (0 Bft) 100,00 %
04.10.2020 22:54 10,8 C 9,4 C 9,4 C 90 % 997,9 hPa 0,0 l/m 0 min 0 min 0 W/m 12,9 km/h (3 Bft) 100,00 %
04.10.2020 22:56 10,8 C 9,4 C 9,4 C 90 % 997,8 hPa 0,0 l/m 0 min 0 min 0 W/m 9,7 km/h (2 Bft) 97,87 %
04.10.2020 22:58 10,7 C 9,4 C 9,4 C 90 % 997,8 hPa 0,0 l/m 0 min 0 min 0 W/m 6,4 km/h (2 Bft) 100,00 %
04.10.2020 23:00 10,7 C 9,4 C 9,4 C 90 % 997,9 hPa 0,0 l/m 0 min 0 min 0 W/m 16,1 km/h (3 Bft) 97,87 %
04.10.2020 23:02 10,7 C 9,4 C 9,4 C 90 % 997,9 hPa 0,0 l/m 0 min 0 min 0 W/m 16,1 km/h (3 Bft) 100,00 %
04.10.2020 23:04 10,7 C 9,4 C 9,4 C 91 % 997,8 hPa 0,0 l/m 0 min 0 min 0 W/m 19,3 km/h (3 Bft) 100,00 %
04.10.2020 23:06 10,7 C 9,4 C 9,4 C 90 % 997,9 hPa 0,0 l/m 0 min 0 min 0 W/m 12,9 km/h (3 Bft) 100,00 %
04.10.2020 23:08 10,6 C 9,4 C 9,4 C 91 % 997,8 hPa 0,0 l/m 0 min 0 min 0 W/m 19,3 km/h (3 Bft) 100,00 %
04.10.2020 23:10 10,6 C 9,4 C 9,4 C 91 % 997,8 hPa 0,0 l/m 0 min 0 min 0 W/m 3,2 km/h (1 Bft) 95,74 %
04.10.2020 23:12 10,6 C 9,4 C 9,4 C 91 % 997,8 hPa 0,0 l/m 0 min 0 min 0 W/m 12,9 km/h (3 Bft) 93,62 %
04.10.2020 23:14 10,6 C 9,4 C 9,4 C 91 % 997,8 hPa 0,0 l/m 0 min 0 min 0 W/m 12,9 km/h (3 Bft) 97,87 %
04.10.2020 23:16 10,6 C 9,4 C 9,4 C 91 % 997,8 hPa 0,0 l/m 0 min 0 min 0 W/m 19,3 km/h (3 Bft) 97,87 %
04.10.2020 23:18 10,6 C 9,4 C 9,4 C 91 % 997,8 hPa 0,0 l/m 0 min 0 min 0 W/m 3,2 km/h (1 Bft) 95,65 %
04.10.2020 23:20 10,6 C 9,4 C 9,4 C 91 % 997,8 hPa 0,0 l/m 0 min 0 min 0 W/m 22,5 km/h (4 Bft) 94,29 %
04.10.2020 23:22 10,5 C 9,4 C 9,4 C 91 % 997,8 hPa 0,0 l/m 0 min 0 min 0 W/m 22,5 km/h (4 Bft) 95,74 %
04.10.2020 23:24 10,5 C 9,4 C 9,4 C 91 % 997,8 hPa 0,0 l/m 0 min 0 min 0 W/m 22,5 km/h (4 Bft) 95,74 %
04.10.2020 23:26 10,5 C 9,4 C 9,4 C 91 % 997,8 hPa 0,0 l/m 0 min 0 min 0 W/m 19,3 km/h (3 Bft) 95,74 %
04.10.2020 23:28 10,5 C 9,4 C 9,4 C 92 % 997,8 hPa 0,0 l/m 0 min 0 min 0 W/m 12,9 km/h (3 Bft) 95,74 %
04.10.2020 23:30 10,4 C 9,4 C 9,4 C 92 % 997,8 hPa 0,0 l/m 0 min 0 min 0 W/m 6,4 km/h (2 Bft) 95,74 %
04.10.2020 23:32 10,5 C 9,4 C 9,4 C 92 % 997,8 hPa 0,0 l/m 0 min 0 min 0 W/m 19,3 km/h (3 Bft) 95,74 %
04.10.2020 23:34 10,4 C 9,4 C 9,4 C 91 % 997,8 hPa 0,0 l/m 0 min 0 min 0 W/m 6,4 km/h (2 Bft) 95,65 %
04.10.2020 23:36 10,4 C 9,4 C 9,4 C 92 % 998,0 hPa 0,0 l/m 0 min 0 min 0 W/m 12,9 km/h (3 Bft) 93,62 %
04.10.2020 23:38 10,4 C 9,4 C 9,4 C 92 % 997,9 hPa 0,0 l/m 0 min 0 min 0 W/m 9,7 km/h (2 Bft) 95,74 %
04.10.2020 23:40 10,4 C 9,4 C 9,4 C 92 % 997,9 hPa 0,0 l/m 0 min 0 min 0 W/m 16,1 km/h (3 Bft) 95,74 %
04.10.2020 23:42 10,4 C 9,4 C 9,4 C 92 % 997,9 hPa 0,0 l/m 0 min 0 min 0 W/m 12,9 km/h (3 Bft) 95,74 %
04.10.2020 23:44 10,4 C 9,4 C 9,4 C 92 % 997,9 hPa 0,0 l/m 0 min 0 min 0 W/m 12,9 km/h (3 Bft) 95,65 %
04.10.2020 23:46 10,4 C 9,4 C 9,4 C 92 % 997,9 hPa 0,0 l/m 0 min 0 min 0 W/m 22,5 km/h (4 Bft) 95,74 %
04.10.2020 23:48 10,4 C 9,4 C 9,4 C 92 % 997,9 hPa 0,0 l/m 0 min 0 min 0 W/m 22,5 km/h (4 Bft) 95,74 %
04.10.2020 23:50 10,4 C 9,4 C 9,4 C 92 % 997,9 hPa 0,0 l/m 0 min 0 min 0 W/m 16,1 km/h (3 Bft) 95,74 %
04.10.2020 23:52 10,4 C 10,0 C 9,4 C 92 % 998,0 hPa 0,0 l/m 0 min 0 min 0 W/m 16,1 km/h (3 Bft) 93,62 %
04.10.2020 23:54 10,4 C 10,0 C 9,4 C 92 % 997,9 hPa 0,0 l/m 0 min 0 min 0 W/m 22,5 km/h (4 Bft) 95,74 %
04.10.2020 23:56 10,4 C 10,0 C 9,4 C 92 % 997,9 hPa 0,0 l/m 0 min 0 min 0 W/m 25,7 km/h (4 Bft) 91,30 %
04.10.2020 23:58 10,4 C 10,0 C 9,4 C 92 % 997,9 hPa 0,0 l/m 0 min 0 min 0 W/m 22,5 km/h (4 Bft) 95,74 %
_ Min-Zeit 23:30 00:02 00:50 13:44 04:46 - - - - 16:48 00:48
Minimum _ 10,4 C 9,4 C 8,9 C 65 % 986,0 hPa - - - - 0,0 km/h (0 Bft) 48,65 %
_ Max-Zeit 15:08 12:52 13:46 07:36 23:36 00:18 09:54 06:08 13:20 12:10 00:18
Maximum _ 15,4 C 18,9 C 14,4 C 97 % 998,0 hPa 0,2 l/m 2 min 4 min 729 W/m 74,0 km/h
S-SO (8 Bft)
100,00 %
Durchschnitt _ 12,2 C 11,6 C 10,6 C 86 % 992,3 hPa #1,0 l/m #2:14 h #2:42 h 165 W/m 22,3 km/h (4 Bft) 97,45 %
© 2020 W. Hausmann